Observation data for New Home on 11/16/2019      Previous  Date       Current Mesonet Observations  Soil Data  Daily Summary Page  Observations in Plain Language
KNH1 160600Z 19009KT 06/M00 A302 RMK A01 T00631003  RH  063%=      5-min Rain = 0
KNH1 160601Z 19008KT 06/M00 A302 RMK A01 T00631003  RH  063%=      5-min Rain = 0
KNH1 160602Z 20009KT 06/M00 A302 RMK A01 T00621003  RH  063%=      5-min Rain = 0
KNH1 160603Z 19009KT 06/M00 A302 RMK A01 T00621003  RH  063%=      5-min Rain = 0
KNH1 160604Z 19008KT 06/M00 A302 RMK A01 T00631003  RH  063%=      5-min Rain = 0
KNH1 160605Z 20009KT 06/M00 A302 RMK A01 T00621003  RH  063%=      5-min Rain = 0
KNH1 160606Z 20008KT 06/M00 A302 RMK A01 T00621003  RH  063%=      5-min Rain = 0
KNH1 160607Z 20008KT 06/M00 A302 RMK A01 T00621003  RH  063%=      5-min Rain = 0
KNH1 160608Z 20008KT 06/M00 A302 RMK A01 T00621003  RH  063%=      5-min Rain = 0
KNH1 160609Z 20009KT 06/M00 A302 RMK A01 T00621003  RH  063%=      5-min Rain = 0
KNH1 160610Z 20009KT 06/M00 A302 RMK A01 T00621003  RH  063%=      5-min Rain = 0
KNH1 160611Z 20009KT 06/M00 A302 RMK A01 T00621003  RH  063%=      5-min Rain = 0
KNH1 160612Z 19009KT 06/M00 A302 RMK A01 T00621003  RH  063%=      5-min Rain = 0
KNH1 160613Z 19009KT 06/M00 A302 RMK A01 T00621003  RH  063%=      5-min Rain = 0
KNH1 160614Z 20009KT 06/M00 A302 RMK A01 T00611003  RH  063%=      5-min Rain = 0
KNH1 160615Z 20008KT 06/M00 A302 RMK A01 T00611003  RH  063%=      5-min Rain = 0
KNH1 160616Z 20008KT 06/M00 A302 RMK A01 T00611003  RH  063%=      5-min Rain = 0
KNH1 160617Z 20007KT 06/M00 A302 RMK A01 T00611003  RH  064%=      5-min Rain = 0
KNH1 160618Z 20008KT 06/M00 A302 RMK A01 T00601003  RH  064%=      5-min Rain = 0
KNH1 160619Z 20008KT 06/M00 A3019 RMK A01 T00601003  RH  064%=      5-min Rain = 0
KNH1 160620Z 20008KT 06/M00 A3019 RMK A01 T00601003  RH  064%=      5-min Rain = 0
KNH1 160621Z 20008KT 06/M00 A3019 RMK A01 T00601003  RH  064%=      5-min Rain = 0
KNH1 160622Z 20008KT 06/M00 A3019 RMK A01 T00601003  RH  064%=      5-min Rain = 0
KNH1 160623Z 20008KT 06/M00 A3019 RMK A01 T00601003  RH  064%=      5-min Rain = 0
KNH1 160624Z 20008KT 06/M00 A3019 RMK A01 T00601003  RH  064%=      5-min Rain = 0
KNH1 160625Z 20008KT 06/M00 A3019 RMK A01 T00601003  RH  064%=      5-min Rain = 0
KNH1 160626Z 20007KT 06/M00 A3019 RMK A01 T00601003  RH  064%=      5-min Rain = 0
KNH1 160627Z 20008KT 06/M00 A3019 RMK A01 T00591003  RH  064%=      5-min Rain = 0
KNH1 160628Z 20008KT 06/M00 A3019 RMK A01 T00591003  RH  064%=      5-min Rain = 0
KNH1 160629Z 20008KT 06/M00 A3019 RMK A01 T00591003  RH  064%=      5-min Rain = 0
KNH1 160630Z 20007KT 06/M00 A3019 RMK A01 T00591003  RH  064%=      5-min Rain = 0
KNH1 160631Z 20007KT 06/M00 A3019 RMK A01 T00591003  RH  065%=      5-min Rain = 0
KNH1 160632Z 20007KT 06/M00 A3019 RMK A01 T00581003  RH  065%=      5-min Rain = 0
KNH1 160633Z 20007KT 06/M00 A3019 RMK A01 T00581003  RH  065%=      5-min Rain = 0
KNH1 160634Z 21007KT 06/M00 A3019 RMK A01 T00581003  RH  065%=      5-min Rain = 0
KNH1 160635Z 20006KT 06/M00 A3019 RMK A01 T00581003  RH  065%=      5-min Rain = 0
KNH1 160636Z 21006KT 06/M00 A3019 RMK A01 T00571003  RH  065%=      5-min Rain = 0
KNH1 160637Z 21006KT 06/M00 A3019 RMK A01 T00571002  RH  066%=      5-min Rain = 0
KNH1 160638Z 21007KT 06/M00 A3019 RMK A01 T00571003  RH  066%=      5-min Rain = 0
KNH1 160639Z 20007KT 06/M00 A3019 RMK A01 T00571003  RH  066%=      5-min Rain = 0
KNH1 160640Z 20007KT 06/M00 A3019 RMK A01 T00571003  RH  066%=      5-min Rain = 0
KNH1 160641Z 20007KT 06/M00 A3019 RMK A01 T00561003  RH  066%=      5-min Rain = 0
KNH1 160642Z 20007KT 06/M00 A3019 RMK A01 T00561003  RH  066%=      5-min Rain = 0
KNH1 160643Z 20007KT 06/M00 A3019 RMK A01 T00561003  RH  066%=      5-min Rain = 0
KNH1 160644Z 20007KT 06/M00 A3019 RMK A01 T00551004  RH  066%=      5-min Rain = 0
KNH1 160645Z 20007KT 06/M00 A3019 RMK A01 T00551003  RH  066%=      5-min Rain = 0
KNH1 160646Z 20007KT 06/M00 A3019 RMK A01 T00551003  RH  066%=      5-min Rain = 0
KNH1 160647Z 20007KT 06/M00 A3019 RMK A01 T00551003  RH  066%=      5-min Rain = 0
KNH1 160648Z 20007KT 06/M00 A3019 RMK A01 T00551003  RH  066%=      5-min Rain = 0
KNH1 160649Z 20007KT 06/M00 A3019 RMK A01 T00551003  RH  066%=      5-min Rain = 0
KNH1 160650Z 20007KT 05/M00 A3019 RMK A01 T00541003  RH  067%=      5-min Rain = 0
KNH1 160651Z 20008KT 05/M00 A3019 RMK A01 T00541003  RH  067%=      5-min Rain = 0
KNH1 160652Z 20008KT 05/M00 A3019 RMK A01 T00541003  RH  067%=      5-min Rain = 0
KNH1 160653Z 20007KT 05/M00 A3019 RMK A01 T00541003  RH  067%=      5-min Rain = 0
KNH1 160654Z 20007KT 05/M00 A3019 RMK A01 T00541003  RH  067%=      5-min Rain = 0
KNH1 160655Z 20007KT 05/M00 A3019 RMK A01 T00541003  RH  067%=      5-min Rain = 0
KNH1 160656Z 20007KT 05/M00 A3019 RMK A01 T00541003  RH  067%=      5-min Rain = 0
KNH1 160657Z 20007KT 05/M00 A3018 RMK A01 T00531003  RH  067%=      5-min Rain = 0
KNH1 160658Z 21006KT 05/M00 A3018 RMK A01 T00531003  RH  067%=      5-min Rain = 0
KNH1 160659Z 20006KT 05/M00 A3018 RMK A01 T00531003  RH  067%=      5-min Rain = 0
KNH1 160700Z 20007KT 05/M00 A3018 RMK A01 T00521003  RH  067%=      5-min Rain = 0
KNH1 160701Z 20007KT 05/M00 A3018 RMK A01 T00521003  RH  068%=      5-min Rain = 0
KNH1 160702Z 20006KT 05/M00 A3018 RMK A01 T00521003  RH  068%=      5-min Rain = 0
KNH1 160703Z 20006KT 05/M00 A3018 RMK A01 T00521003  RH  068%=      5-min Rain = 0
KNH1 160704Z 20006KT 05/M00 A3018 RMK A01 T00521003  RH  068%=      5-min Rain = 0
KNH1 160705Z 20006KT 05/M00 A3018 RMK A01 T00521003  RH  068%=      5-min Rain = 0
KNH1 160706Z 20007KT 05/M00 A3018 RMK A01 T00521003  RH  068%=      5-min Rain = 0
KNH1 160707Z 20007KT 05/M00 A3018 RMK A01 T00521003  RH  068%=      5-min Rain = 0
KNH1 160708Z 20006KT 05/M00 A3018 RMK A01 T00511003  RH  068%=      5-min Rain = 0
KNH1 160709Z 20007KT 05/M00 A3018 RMK A01 T00511003  RH  068%=      5-min Rain = 0
KNH1 160710Z 20006KT 05/M00 A3018 RMK A01 T00511003  RH  068%=      5-min Rain = 0
KNH1 160711Z 20006KT 05/M00 A3018 RMK A01 T00511003  RH  068%=      5-min Rain = 0
KNH1 160712Z 20006KT 05/M00 A3018 RMK A01 T00511003  RH  068%=      5-min Rain = 0
KNH1 160713Z 20006KT 05/M00 A3018 RMK A01 T00501003  RH  068%=      5-min Rain = 0
KNH1 160714Z 20006KT 05/M00 A3018 RMK A01 T00501003  RH  068%=      5-min Rain = 0
KNH1 160715Z 21006KT 05/M00 A3018 RMK A01 T00501003  RH  068%=      5-min Rain = 0
KNH1 160716Z 20006KT 05/M00 A3018 RMK A01 T00501003  RH  069%=      5-min Rain = 0
KNH1 160717Z 20006KT 05/M00 A3018 RMK A01 T00491003  RH  069%=      5-min Rain = 0
KNH1 160718Z 20007KT 05/M00 A3018 RMK A01 T00491003  RH  069%=      5-min Rain = 0
KNH1 160719Z 20006KT 05/M00 A3018 RMK A01 T00491003  RH  069%=      5-min Rain = 0
KNH1 160720Z 20006KT 05/M00 A3018 RMK A01 T00491004  RH  069%=      5-min Rain = 0
KNH1 160721Z 20007KT 05/M00 A3018 RMK A01 T00491003  RH  069%=      5-min Rain = 0
KNH1 160722Z 20006KT 05/M00 A3018 RMK A01 T00481004  RH  069%=      5-min Rain = 0
KNH1 160723Z 20007KT 05/M00 A3018 RMK A01 T00481003  RH  069%=      5-min Rain = 0
KNH1 160724Z 20007KT 05/M00 A3018 RMK A01 T00481003  RH  069%=      5-min Rain = 0
KNH1 160725Z 20007KT 05/M00 A3018 RMK A01 T00481004  RH  069%=      5-min Rain = 0
KNH1 160726Z 20007KT 05/M00 A3018 RMK A01 T00481004  RH  069%=      5-min Rain = 0
KNH1 160727Z 20007KT 05/M00 A3018 RMK A01 T00481004  RH  069%=      5-min Rain = 0
KNH1 160728Z 20008KT 05/M00 A3018 RMK A01 T00481003  RH  069%=      5-min Rain = 0
KNH1 160729Z 20008KT 05/M00 A3018 RMK A01 T00481003  RH  069%=      5-min Rain = 0
KNH1 160730Z 20008KT 05/M00 A3018 RMK A01 T00481004  RH  069%=      5-min Rain = 0
KNH1 160731Z 20009KT 05/M00 A3018 RMK A01 T00491003  RH  069%=      5-min Rain = 0
KNH1 160732Z 20008KT 05/M00 A3018 RMK A01 T00491004  RH  069%=      5-min Rain = 0
KNH1 160733Z 20008KT 05/M00 A3017 RMK A01 T00501003  RH  068%=      5-min Rain = 0
KNH1 160734Z 20007KT 05/M00 A3017 RMK A01 T00501003  RH  068%=      5-min Rain = 0
KNH1 160735Z 20009KT 05/M00 A3017 RMK A01 T00501003  RH  068%=      5-min Rain = 0
KNH1 160736Z 20008KT 05/M00 A3017 RMK A01 T00511003  RH  068%=      5-min Rain = 0
KNH1 160737Z 20008KT 05/M00 A3017 RMK A01 T00521003  RH  067%=      5-min Rain = 0
KNH1 160738Z 20009KT 05/M00 A3017 RMK A01 T00521003  RH  067%=      5-min Rain = 0
KNH1 160739Z 20009KT 05/M00 A3017 RMK A01 T00521003  RH  067%=      5-min Rain = 0
KNH1 160740Z 20009KT 05/M00 A3017 RMK A01 T00531004  RH  067%=      5-min Rain = 0
KNH1 160741Z 20008KT 05/M01 A3017 RMK A01 T00531005  RH  066%=      5-min Rain = 0
KNH1 160742Z 20009KT 05/M01 A3017 RMK A01 T00531005  RH  066%=      5-min Rain = 0
KNH1 160743Z 20009KT 05/M00 A3017 RMK A01 T00541004  RH  066%=      5-min Rain = 0
KNH1 160744Z 20009KT 05/M00 A3017 RMK A01 T00541004  RH  066%=      5-min Rain = 0
KNH1 160745Z 20009KT 05/M00 A3017 RMK A01 T00541004  RH  066%=      5-min Rain = 0
KNH1 160746Z 20008KT 05/M01 A3017 RMK A01 T00541005  RH  066%=      5-min Rain = 0
KNH1 160747Z 20009KT 05/M00 A3017 RMK A01 T00541004  RH  066%=      5-min Rain = 0
KNH1 160748Z 20009KT 05/M01 A3017 RMK A01 T00541005  RH  066%=      5-min Rain = 0
KNH1 160749Z 20009KT 05/M00 A3017 RMK A01 T00541004  RH  066%=      5-min Rain = 0
KNH1 160750Z 20009KT 05/M00 A3017 RMK A01 T00541004  RH  066%=      5-min Rain = 0
KNH1 160751Z 20008KT 05/M00 A3017 RMK A01 T00541004  RH  066%=      5-min Rain = 0
KNH1 160752Z 20008KT 05/M00 A3017 RMK A01 T00541004  RH  066%=      5-min Rain = 0
KNH1 160753Z 20009KT 05/M00 A3017 RMK A01 T00541004  RH  066%=      5-min Rain = 0
KNH1 160754Z 20008KT 05/M00 A3017 RMK A01 T00541004  RH  066%=      5-min Rain = 0
KNH1 160755Z 20009KT 05/M00 A3017 RMK A01 T00541004  RH  066%=      5-min Rain = 0
KNH1 160756Z 20009KT 05/M00 A3017 RMK A01 T00541004  RH  066%=      5-min Rain = 0
KNH1 160757Z 20008KT 05/M00 A3017 RMK A01 T00541004  RH  066%=      5-min Rain = 0
KNH1 160758Z 20009KT 05/M00 A3017 RMK A01 T00541004  RH  066%=      5-min Rain = 0
KNH1 160759Z 20010KT 05/M00 A3017 RMK A01 T00541004  RH  066%=      5-min Rain = 0
KNH1 160800Z 20008KT 05/M00 A3017 RMK A01 T00541004  RH  066%=      5-min Rain = 0
KNH1 160801Z 20009KT 05/M00 A3017 RMK A01 T00541004  RH  066%=      5-min Rain = 0
KNH1 160802Z 20009KT 05/M00 A3017 RMK A01 T00541004  RH  066%=      5-min Rain = 0
KNH1 160803Z 20009KT 05/M00 A3017 RMK A01 T00541004  RH  067%=      5-min Rain = 0
KNH1 160804Z 20009KT 05/M00 A3017 RMK A01 T00541004  RH  067%=      5-min Rain = 0
KNH1 160805Z 20009KT 05/M00 A3017 RMK A01 T00541004  RH  066%=      5-min Rain = 0
KNH1 160806Z 20009KT 05/M00 A3017 RMK A01 T00541004  RH  066%=      5-min Rain = 0
KNH1 160807Z 20009KT 05/M00 A3017 RMK A01 T00541004  RH  066%=      5-min Rain = 0
KNH1 160808Z 20009KT 05/M00 A3017 RMK A01 T00541004  RH  066%=      5-min Rain = 0
KNH1 160809Z 20009KT 05/M00 A3017 RMK A01 T00541004  RH  067%=      5-min Rain = 0
KNH1 160810Z 20008KT 05/M00 A3017 RMK A01 T00541004  RH  067%=      5-min Rain = 0
KNH1 160811Z 20008KT 05/M00 A3017 RMK A01 T00541004  RH  067%=      5-min Rain = 0
KNH1 160812Z 20008KT 05/M00 A3017 RMK A01 T00541003  RH  067%=      5-min Rain = 0
KNH1 160813Z 20008KT 05/M00 A3017 RMK A01 T00531003  RH  067%=      5-min Rain = 0
KNH1 160814Z 20008KT 05/M00 A3017 RMK A01 T00531003  RH  067%=      5-min Rain = 0
KNH1 160815Z 20008KT 05/M00 A3017 RMK A01 T00531003  RH  067%=      5-min Rain = 0
KNH1 160816Z 20008KT 05/M00 A3017 RMK A01 T00541003  RH  067%=      5-min Rain = 0
KNH1 160817Z 20008KT 05/M00 A3017 RMK A01 T00541003  RH  067%=      5-min Rain = 0
KNH1 160818Z 20009KT 05/M00 A3017 RMK A01 T00541003  RH  067%=      5-min Rain = 0
KNH1 160819Z 20008KT 05/M00 A3017 RMK A01 T00541003  RH  067%=      5-min Rain = 0
KNH1 160820Z 20008KT 05/M00 A3017 RMK A01 T00531003  RH  067%=      5-min Rain = 0
KNH1 160821Z 20008KT 05/M00 A3017 RMK A01 T00531003  RH  067%=      5-min Rain = 0
KNH1 160822Z 20008KT 05/M00 A3017 RMK A01 T00531003  RH  067%=      5-min Rain = 0
KNH1 160823Z 20007KT 05/M00 A3017 RMK A01 T00521003  RH  068%=      5-min Rain = 0
KNH1 160824Z 20008KT 05/M00 A3017 RMK A01 T00521003  RH  068%=      5-min Rain = 0
KNH1 160825Z 20008KT 05/M00 A3017 RMK A01 T00511003  RH  068%=      5-min Rain = 0
KNH1 160826Z 20008KT 05/M00 A3017 RMK A01 T00511003  RH  068%=      5-min Rain = 0
KNH1 160827Z 20008KT 05/M00 A3017 RMK A01 T00511003  RH  068%=      5-min Rain = 0
KNH1 160828Z 20008KT 05/M00 A3017 RMK A01 T00511003  RH  068%=      5-min Rain = 0
KNH1 160829Z 20007KT 05/M00 A3017 RMK A01 T00511003  RH  068%=      5-min Rain = 0
KNH1 160830Z 20008KT 05/M00 A3017 RMK A01 T00501003  RH  068%=      5-min Rain = 0
KNH1 160831Z 20007KT 05/M00 A3017 RMK A01 T00501003  RH  069%=      5-min Rain = 0
KNH1 160832Z 20007KT 05/M00 A3017 RMK A01 T00501003  RH  069%=      5-min Rain = 0
KNH1 160833Z 20007KT 05/M00 A3017 RMK A01 T00501003  RH  069%=      5-min Rain = 0
KNH1 160834Z 20006KT 05/M00 A3017 RMK A01 T00491002  RH  069%=      5-min Rain = 0
KNH1 160835Z 20007KT 05/M00 A3017 RMK A01 T00491002  RH  070%=      5-min Rain = 0
KNH1 160836Z 20007KT 05/M00 A3017 RMK A01 T00491002  RH  070%=      5-min Rain = 0
KNH1 160837Z 20007KT 05/M00 A3017 RMK A01 T00491002  RH  070%=      5-min Rain = 0
KNH1 160838Z 20007KT 05/M00 A3017 RMK A01 T00491002  RH  070%=      5-min Rain = 0
KNH1 160839Z 20007KT 05/M00 A3017 RMK A01 T00491002  RH  070%=      5-min Rain = 0
KNH1 160840Z 20007KT 05/M00 A3017 RMK A01 T00491002  RH  069%=      5-min Rain = 0
KNH1 160841Z 20008KT 05/M00 A3017 RMK A01 T00491002  RH  070%=      5-min Rain = 0
KNH1 160842Z 20007KT 05/M00 A3017 RMK A01 T00491002  RH  070%=      5-min Rain = 0
KNH1 160843Z 20008KT 05/M00 A3016 RMK A01 T00491002  RH  070%=      5-min Rain = 0
KNH1 160844Z 20007KT 05/M00 A3016 RMK A01 T00491002  RH  070%=      5-min Rain = 0
KNH1 160845Z 20007KT 05/M00 A3016 RMK A01 T00491002  RH  070%=      5-min Rain = 0
KNH1 160846Z 20008KT 05/M00 A3016 RMK A01 T00481002  RH  070%=      5-min Rain = 0
KNH1 160847Z 20007KT 05/M00 A3016 RMK A01 T00481002  RH  070%=      5-min Rain = 0
KNH1 160848Z 20007KT 05/M00 A3016 RMK A01 T00481002  RH  070%=      5-min Rain = 0
KNH1 160849Z 20008KT 05/M00 A3016 RMK A01 T00481002  RH  070%=      5-min Rain = 0
KNH1 160850Z 20008KT 05/M00 A3016 RMK A01 T00481002  RH  070%=      5-min Rain = 0
KNH1 160851Z 20008KT 05/M00 A3016 RMK A01 T00481002  RH  070%=      5-min Rain = 0
KNH1 160852Z 20008KT 05/M00 A3016 RMK A01 T00481002  RH  070%=      5-min Rain = 0
KNH1 160853Z 20007KT 05/M00 A3016 RMK A01 T00491002  RH  070%=      5-min Rain = 0
KNH1 160854Z 20007KT 05/M00 A3016 RMK A01 T00491002  RH  070%=      5-min Rain = 0
KNH1 160855Z 20007KT 05/M00 A3016 RMK A01 T00491002  RH  070%=      5-min Rain = 0
KNH1 160856Z 20007KT 05/M00 A3016 RMK A01 T00491002  RH  070%=      5-min Rain = 0
KNH1 160857Z 21008KT 05/M00 A3016 RMK A01 T00491002  RH  070%=      5-min Rain = 0
KNH1 160858Z 21007KT 05/M00 A3016 RMK A01 T00501002  RH  069%=      5-min Rain = 0
KNH1 160859Z 21007KT 05/M00 A3016 RMK A01 T00501002  RH  069%=      5-min Rain = 0
KNH1 160900Z 21008KT 05/M00 A3016 RMK A01 T00501002  RH  069%=      5-min Rain = 0
KNH1 160901Z 21008KT 05/M00 A3016 RMK A01 T00501002  RH  070%=      5-min Rain = 0
KNH1 160902Z 21007KT 05/M00 A3016 RMK A01 T00501001  RH  070%=      5-min Rain = 0
KNH1 160903Z 20007KT 05/M00 A3016 RMK A01 T00491001  RH  070%=      5-min Rain = 0
KNH1 160904Z 20008KT 05/M00 A3016 RMK A01 T00491001  RH  070%=      5-min Rain = 0
KNH1 160905Z 20007KT 05/M00 A3016 RMK A01 T00491001  RH  070%=      5-min Rain = 0
KNH1 160906Z 20007KT 05/M00 A3016 RMK A01 T00481001  RH  070%=      5-min Rain = 0
KNH1 160907Z 20007KT 05/M00 A3016 RMK A01 T00481001  RH  070%=      5-min Rain = 0
KNH1 160908Z 20008KT 05/M00 A3016 RMK A01 T00481001  RH  071%=      5-min Rain = 0
KNH1 160909Z 20007KT 05/M00 A3016 RMK A01 T00481001  RH  071%=      5-min Rain = 0
KNH1 160910Z 20007KT 05/M00 A3016 RMK A01 T00481001  RH  071%=      5-min Rain = 0
KNH1 160911Z 20007KT 05/M00 A3016 RMK A01 T00481001  RH  071%=      5-min Rain = 0
KNH1 160912Z 20008KT 05/M00 A3016 RMK A01 T00481001  RH  071%=      5-min Rain = 0
KNH1 160913Z 20007KT 05/M00 A3016 RMK A01 T00471001  RH  071%=      5-min Rain = 0
KNH1 160914Z 20008KT 05/M00 A3016 RMK A01 T00471002  RH  071%=      5-min Rain = 0
KNH1 160915Z 20008KT 05/M00 A3016 RMK A01 T00481001  RH  071%=      5-min Rain = 0
KNH1 160916Z 20007KT 05/M00 A3016 RMK A01 T00481001  RH  071%=      5-min Rain = 0
KNH1 160917Z 20007KT 05/M00 A3016 RMK A01 T00481001  RH  071%=      5-min Rain = 0
KNH1 160918Z 20007KT 05/M00 A3016 RMK A01 T00471001  RH  071%=      5-min Rain = 0
KNH1 160919Z 20007KT 05/M00 A3016 RMK A01 T00471001  RH  071%=      5-min Rain = 0
KNH1 160920Z 20007KT 05/M00 A3016 RMK A01 T00471001  RH  071%=      5-min Rain = 0
KNH1 160921Z 20007KT 05/M00 A3016 RMK A01 T00471001  RH  071%=      5-min Rain = 0
KNH1 160922Z 20007KT 05/M00 A3016 RMK A01 T00471001  RH  071%=      5-min Rain = 0
KNH1 160923Z 21007KT 05/M00 A3016 RMK A01 T00461001  RH  071%=      5-min Rain = 0
KNH1 160924Z 21007KT 05/M00 A3016 RMK A01 T00461001  RH  072%=      5-min Rain = 0
KNH1 160925Z 21007KT 05/M00 A3016 RMK A01 T00461001  RH  072%=      5-min Rain = 0
KNH1 160926Z 20007KT 05/M00 A3016 RMK A01 T00451001  RH  072%=      5-min Rain = 0
KNH1 160927Z 20007KT 05/M00 A3016 RMK A01 T00451001  RH  072%=      5-min Rain = 0
KNH1 160928Z 20007KT 04/M00 A3016 RMK A01 T00441001  RH  072%=      5-min Rain = 0
KNH1 160929Z 20006KT 04/M00 A3016 RMK A01 T00441001  RH  072%=      5-min Rain = 0
KNH1 160930Z 21007KT 04/M00 A3016 RMK A01 T00441001  RH  072%=      5-min Rain = 0
KNH1 160931Z 21007KT 05/M00 A3016 RMK A01 T00451001  RH  072%=      5-min Rain = 0
KNH1 160932Z 21007KT 05/M00 A3016 RMK A01 T00451001  RH  072%=      5-min Rain = 0
KNH1 160933Z 21007KT 05/M00 A3016 RMK A01 T00451001  RH  072%=      5-min Rain = 0
KNH1 160934Z 20007KT 04/M00 A3016 RMK A01 T00441001  RH  073%=      5-min Rain = 0
KNH1 160935Z 20007KT 04/M00 A3016 RMK A01 T00441001  RH  073%=      5-min Rain = 0
KNH1 160936Z 21008KT 04/M00 A3016 RMK A01 T00441001  RH  073%=      5-min Rain = 0
KNH1 160937Z 21007KT 04/M00 A3016 RMK A01 T00441001  RH  073%=      5-min Rain = 0
KNH1 160938Z 21008KT 04/M00 A3016 RMK A01 T00431001  RH  073%=      5-min Rain = 0
KNH1 160939Z 21008KT 04/M00 A3016 RMK A01 T00431001  RH  073%=      5-min Rain = 0
KNH1 160940Z 21008KT 04/M00 A3016 RMK A01 T00431001  RH  073%=      5-min Rain = 0
KNH1 160941Z 21007KT 04/M00 A3016 RMK A01 T00431001  RH  073%=      5-min Rain = 0
KNH1 160942Z 21008KT 04/M00 A3016 RMK A01 T00431001  RH  073%=      5-min Rain = 0
KNH1 160943Z 21007KT 04/M00 A3015 RMK A01 T00421001  RH  073%=      5-min Rain = 0
KNH1 160944Z 21008KT 04/M00 A3015 RMK A01 T00421001  RH  074%=      5-min Rain = 0
KNH1 160945Z 21007KT 04/M00 A3015 RMK A01 T00421001  RH  074%=      5-min Rain = 0
KNH1 160946Z 20007KT 04/M00 A3015 RMK A01 T00411002  RH  074%=      5-min Rain = 0
KNH1 160947Z 21008KT 04/M00 A3015 RMK A01 T00401001  RH  074%=      5-min Rain = 0
KNH1 160948Z 20007KT 04/M00 A3015 RMK A01 T00401001  RH  074%=      5-min Rain = 0
KNH1 160949Z 20008KT 04/M00 A3015 RMK A01 T00401001  RH  074%=      5-min Rain = 0
KNH1 160950Z 20008KT 04/M00 A3015 RMK A01 T00401001  RH  075%=      5-min Rain = 0
KNH1 160951Z 21007KT 04/M00 A3015 RMK A01 T00401001  RH  074%=      5-min Rain = 0
KNH1 160952Z 21007KT 04/M00 A3015 RMK A01 T00401001  RH  074%=      5-min Rain = 0
KNH1 160953Z 21008KT 04/M00 A3015 RMK A01 T00401001  RH  074%=      5-min Rain = 0
KNH1 160954Z 21007KT 04/M00 A3015 RMK A01 T00401001  RH  074%=      5-min Rain = 0
KNH1 160955Z 21007KT 04/M00 A3015 RMK A01 T00401001  RH  074%=      5-min Rain = 0
KNH1 160956Z 21007KT 04/M00 A3015 RMK A01 T00401001  RH  075%=      5-min Rain = 0
KNH1 160957Z 21006KT 04/M00 A3015 RMK A01 T00391002  RH  075%=      5-min Rain = 0
KNH1 160958Z 21006KT 04/M00 A3015 RMK A01 T00391002  RH  075%=      5-min Rain = 0
KNH1 160959Z 21006KT 04/M00 A3015 RMK A01 T00381002  RH  075%=      5-min Rain = 0
KNH1 161000Z 20007KT 04/M00 A3015 RMK A01 T00381002  RH  075%=      5-min Rain = 0
KNH1 161001Z 21007KT 04/M00 A3015 RMK A01 T00381001  RH  075%=      5-min Rain = 0
KNH1 161002Z 21007KT 04/M00 A3015 RMK A01 T00381002  RH  075%=      5-min Rain = 0
KNH1 161003Z 20007KT 04/M00 A3015 RMK A01 T00371002  RH  075%=      5-min Rain = 0
KNH1 161004Z 21006KT 04/M00 A3015 RMK A01 T00371002  RH  076%=      5-min Rain = 0
KNH1 161005Z 21006KT 04/M00 A3015 RMK A01 T00371002  RH  076%=      5-min Rain = 0
KNH1 161006Z 21006KT 04/M00 A3015 RMK A01 T00371002  RH  076%=      5-min Rain = 0
KNH1 161007Z 20007KT 04/M00 A3015 RMK A01 T00371002  RH  076%=      5-min Rain = 0
KNH1 161008Z 21007KT 04/M00 A3015 RMK A01 T00371002  RH  076%=      5-min Rain = 0
KNH1 161009Z 21007KT 04/M00 A3015 RMK A01 T00371002  RH  076%=      5-min Rain = 0
KNH1 161010Z 20007KT 04/M00 A3015 RMK A01 T00371002  RH  076%=      5-min Rain = 0
KNH1 161011Z 20007KT 04/M00 A3015 RMK A01 T00361002  RH  076%=      5-min Rain = 0
KNH1 161012Z 20007KT 04/M00 A3015 RMK A01 T00361002  RH  076%=      5-min Rain = 0
KNH1 161013Z 20007KT 04/M00 A3015 RMK A01 T00361002  RH  076%=      5-min Rain = 0
KNH1 161014Z 20007KT 04/M00 A3015 RMK A01 T00361002  RH  076%=      5-min Rain = 0
KNH1 161015Z 20007KT 04/M00 A3015 RMK A01 T00351002  RH  076%=      5-min Rain = 0
KNH1 161016Z 20006KT 04/M00 A3015 RMK A01 T00361002  RH  076%=      5-min Rain = 0
KNH1 161017Z 20006KT 04/M00 A3015 RMK A01 T00351002  RH  076%=      5-min Rain = 0
KNH1 161018Z 20007KT 04/M00 A3015 RMK A01 T00351002  RH  077%=      5-min Rain = 0
KNH1 161019Z 20007KT 04/M00 A3015 RMK A01 T00351002  RH  077%=      5-min Rain = 0
KNH1 161020Z 20006KT 04/M00 A3015 RMK A01 T00351003  RH  076%=      5-min Rain = 0
KNH1 161021Z 20007KT 04/M00 A3015 RMK A01 T00351002  RH  077%=      5-min Rain = 0
KNH1 161022Z 20006KT 04/M00 A3015 RMK A01 T00351002  RH  077%=      5-min Rain = 0
KNH1 161023Z 20007KT 03/M00 A3015 RMK A01 T00341003  RH  077%=      5-min Rain = 0
KNH1 161024Z 20007KT 03/M00 A3015 RMK A01 T00341003  RH  077%=      5-min Rain = 0
KNH1 161025Z 20007KT 03/M00 A3015 RMK A01 T00341002  RH  077%=      5-min Rain = 0
KNH1 161026Z 20007KT 03/M00 A3015 RMK A01 T00341002  RH  077%=      5-min Rain = 0
KNH1 161027Z 20007KT 03/M00 A3015 RMK A01 T00341002  RH  077%=      5-min Rain = 0
KNH1 161028Z 20007KT 04/M00 A3015 RMK A01 T00351002  RH  077%=      5-min Rain = 0
KNH1 161029Z 20007KT 04/M00 A3015 RMK A01 T00351002  RH  077%=      5-min Rain = 0
KNH1 161030Z 20006KT 04/M00 A3015 RMK A01 T00351002  RH  077%=      5-min Rain = 0
KNH1 161031Z 20006KT 04/M00 A3015 RMK A01 T00351002  RH  077%=      5-min Rain = 0
KNH1 161032Z 20007KT 04/M00 A3015 RMK A01 T00351002  RH  077%=      5-min Rain = 0
KNH1 161033Z 21007KT 04/M00 A3015 RMK A01 T00351002  RH  077%=      5-min Rain = 0
KNH1 161034Z 21007KT 04/M00 A3015 RMK A01 T00351002  RH  077%=      5-min Rain = 0
KNH1 161035Z 21007KT 04/M00 A3015 RMK A01 T00351002  RH  077%=      5-min Rain = 0
KNH1 161036Z 21007KT 04/M00 A3015 RMK A01 T00351002  RH  077%=      5-min Rain = 0
KNH1 161037Z 21006KT 04/M00 A3015 RMK A01 T00351002  RH  077%=      5-min Rain = 0
KNH1 161038Z 21006KT 03/M00 A3015 RMK A01 T00341002  RH  077%=      5-min Rain = 0
KNH1 161039Z 21006KT 04/M00 A3015 RMK A01 T00351002  RH  077%=      5-min Rain = 0
KNH1 161040Z 21006KT 04/M00 A3015 RMK A01 T00351002  RH  077%=      5-min Rain = 0
KNH1 161041Z 21006KT 04/M00 A3015 RMK A01 T00351002  RH  076%=      5-min Rain = 0
KNH1 161042Z 21007KT 04/M00 A3015 RMK A01 T00351002  RH  077%=      5-min Rain = 0
KNH1 161043Z 21007KT 04/M00 A3015 RMK A01 T00351002  RH  077%=      5-min Rain = 0
KNH1 161044Z 20007KT 03/M00 A3015 RMK A01 T00341002  RH  077%=      5-min Rain = 0
KNH1 161045Z 20007KT 03/M00 A3015 RMK A01 T00341002  RH  077%=      5-min Rain = 0
KNH1 161046Z 20006KT 03/M00 A3015 RMK A01 T00341002  RH  077%=      5-min Rain = 0
KNH1 161047Z 20006KT 03/M00 A3015 RMK A01 T00331002  RH  077%=      5-min Rain = 0
KNH1 161048Z 20006KT 03/M00 A3015 RMK A01 T00341002  RH  078%=      5-min Rain = 0
KNH1 161049Z 20006KT 03/M00 A3015 RMK A01 T00331002  RH  078%=      5-min Rain = 0
KNH1 161050Z 20006KT 03/M00 A3015 RMK A01 T00331002  RH  078%=      5-min Rain = 0
KNH1 161051Z 20006KT 03/M00 A3015 RMK A01 T00331002  RH  078%=      5-min Rain = 0
KNH1 161052Z 20007KT 03/M00 A3015 RMK A01 T00331002  RH  078%=      5-min Rain = 0
KNH1 161053Z 20007KT 03/M00 A3015 RMK A01 T00321002  RH  078%=      5-min Rain = 0
KNH1 161054Z 20007KT 03/M00 A3015 RMK A01 T00321002  RH  078%=      5-min Rain = 0
KNH1 161055Z 20006KT 03/M00 A3015 RMK A01 T00321002  RH  078%=      5-min Rain = 0
KNH1 161056Z 20007KT 03/M00 A3014 RMK A01 T00321002  RH  078%=      5-min Rain = 0
KNH1 161057Z 20007KT 03/M00 A3014 RMK A01 T00321002  RH  078%=      5-min Rain = 0
KNH1 161058Z 20007KT 03/M00 A3014 RMK A01 T00321002  RH  078%=      5-min Rain = 0
KNH1 161059Z 20007KT 03/M00 A3014 RMK A01 T00311003  RH  078%=      5-min Rain = 0
KNH1 161100Z 20007KT 03/M00 A3014 RMK A01 T00311003  RH  079%=      5-min Rain = 0
KNH1 161101Z 19007KT 03/M00 A3014 RMK A01 T00311002  RH  079%=      5-min Rain = 0
KNH1 161102Z 19006KT 03/M00 A3014 RMK A01 T00301002  RH  079%=      5-min Rain = 0
KNH1 161103Z 19006KT 03/M00 A3014 RMK A01 T00301002  RH  079%=      5-min Rain = 0
KNH1 161104Z 19007KT 03/M00 A3014 RMK A01 T00301002  RH  079%=      5-min Rain = 0
KNH1 161105Z 19007KT 03/M00 A3014 RMK A01 T00301002  RH  079%=      5-min Rain = 0
KNH1 161106Z 19007KT 03/M00 A3014 RMK A01 T00301002  RH  079%=      5-min Rain = 0
KNH1 161107Z 19007KT 03/M00 A3014 RMK A01 T00301002  RH  079%=      5-min Rain = 0
KNH1 161108Z 19007KT 03/M00 A3014 RMK A01 T00301002  RH  079%=      5-min Rain = 0
KNH1 161109Z 19007KT 03/M00 A3014 RMK A01 T00311002  RH  079%=      5-min Rain = 0
KNH1 161110Z 20007KT 03/M00 A3014 RMK A01 T00311002  RH  079%=      5-min Rain = 0
KNH1 161111Z 19007KT 03/M00 A3014 RMK A01 T00311002  RH  079%=      5-min Rain = 0
KNH1 161112Z 19007KT 03/M00 A3014 RMK A01 T00311002  RH  079%=      5-min Rain = 0
KNH1 161113Z 20007KT 03/M00 A3014 RMK A01 T00311002  RH  079%=      5-min Rain = 0
KNH1 161114Z 19007KT 03/M00 A3014 RMK A01 T00311002  RH  079%=      5-min Rain = 0
KNH1 161115Z 20006KT 03/M00 A3014 RMK A01 T00301002  RH  079%=      5-min Rain = 0
KNH1 161116Z 20007KT 03/M00 A3014 RMK A01 T00301002  RH  079%=      5-min Rain = 0
KNH1 161117Z 20007KT 03/M00 A3014 RMK A01 T00301002  RH  079%=      5-min Rain = 0
KNH1 161118Z 20007KT 03/M00 A3014 RMK A01 T00301002  RH  079%=      5-min Rain = 0
KNH1 161119Z 19006KT 03/M00 A3014 RMK A01 T00301002  RH  079%=      5-min Rain = 0
KNH1 161120Z 19007KT 03/M00 A3014 RMK A01 T00301002  RH  080%=      5-min Rain = 0
KNH1 161121Z 19007KT 03/M00 A3014 RMK A01 T00301002  RH  079%=      5-min Rain = 0
KNH1 161122Z 19007KT 03/M00 A3014 RMK A01 T00311002  RH  079%=      5-min Rain = 0
KNH1 161123Z 20006KT 03/M00 A3014 RMK A01 T00301002  RH  079%=      5-min Rain = 0
KNH1 161124Z 19007KT 03/M00 A3014 RMK A01 T00301002  RH  080%=      5-min Rain = 0
KNH1 161125Z 19007KT 03/M00 A3014 RMK A01 T00301002  RH  080%=      5-min Rain = 0
KNH1 161126Z 20006KT 03/M00 A3014 RMK A01 T00301002  RH  079%=      5-min Rain = 0
KNH1 161127Z 19006KT 03/M00 A3014 RMK A01 T00301002  RH  079%=      5-min Rain = 0
KNH1 161128Z 19006KT 03/M00 A3014 RMK A01 T00301002  RH  079%=      5-min Rain = 0
KNH1 161129Z 19006KT 03/M00 A3014 RMK A01 T00301002  RH  079%=      5-min Rain = 0
KNH1 161130Z 19006KT 03/M00 A3014 RMK A01 T00311002  RH  079%=      5-min Rain = 0
KNH1 161131Z 19006KT 03/M00 A3014 RMK A01 T00311001  RH  079%=      5-min Rain = 0
KNH1 161132Z 19005KT 03/M00 A3014 RMK A01 T00311002  RH  079%=      5-min Rain = 0
KNH1 161133Z 19005KT 03/M00 A3014 RMK A01 T00311002  RH  079%=      5-min Rain = 0
KNH1 161134Z 19006KT 03/M00 A3014 RMK A01 T00301001  RH  080%=      5-min Rain = 0
KNH1 161135Z 19006KT 03/M00 A3014 RMK A01 T00301001  RH  080%=      5-min Rain = 0
KNH1 161136Z 19006KT 03/M00 A3014 RMK A01 T00301001  RH  080%=      5-min Rain = 0
KNH1 161137Z 19006KT 03/M00 A3014 RMK A01 T00301001  RH  080%=      5-min Rain = 0
KNH1 161138Z 19006KT 03/M00 A3014 RMK A01 T00301001  RH  080%=      5-min Rain = 0
KNH1 161139Z 19006KT 03/M00 A3014 RMK A01 T00301001  RH  080%=      5-min Rain = 0
KNH1 161140Z 19006KT 03/M00 A3014 RMK A01 T00301001  RH  080%=      5-min Rain = 0
KNH1 161141Z 20007KT 03/M00 A3014 RMK A01 T00311001  RH  080%=      5-min Rain = 0
KNH1 161142Z 19006KT 03/00 A3014 RMK A01 T003200-0  RH  080%=      5-min Rain = 0
KNH1 161143Z 19006KT 03/00 A3014 RMK A01 T003200-0  RH  079%=      5-min Rain = 0
KNH1 161144Z 20006KT 03/M00 A3014 RMK A01 T00321001  RH  079%=      5-min Rain = 0
KNH1 161145Z 20007KT 03/M00 A3014 RMK A01 T00321001  RH  079%=      5-min Rain = 0
KNH1 161146Z 20008KT 03/00 A3014 RMK A01 T003300-0  RH  079%=      5-min Rain = 0
KNH1 161147Z 20008KT 03/00 A3014 RMK A01 T003300-0  RH  079%=      5-min Rain = 0
KNH1 161148Z 20008KT 03/M00 A3014 RMK A01 T00331001  RH  079%=      5-min Rain = 0
KNH1 161149Z 20007KT 03/00 A3014 RMK A01 T003300-0  RH  079%=      5-min Rain = 0
KNH1 161150Z 19007KT 03/00 A3014 RMK A01 T003300-0  RH  079%=      5-min Rain = 0
KNH1 161151Z 19006KT 03/00 A3014 RMK A01 T003300-0  RH  079%=      5-min Rain = 0
KNH1 161152Z 19008KT 03/00 A3014 RMK A01 T00330000  RH  079%=      5-min Rain = 0
KNH1 161153Z 19007KT 03/00 A3014 RMK A01 T00340000  RH  079%=      5-min Rain = 0
KNH1 161154Z 20007KT 03/00 A3014 RMK A01 T00340000  RH  079%=      5-min Rain = 0
KNH1 161155Z 20008KT 03/00 A3014 RMK A01 T00340000  RH  079%=      5-min Rain = 0
KNH1 161156Z 20007KT 03/00 A3014 RMK A01 T00340001  RH  079%=      5-min Rain = 0
KNH1 161157Z 20006KT 03/00 A3014 RMK A01 T00340000  RH  079%=      5-min Rain = 0
KNH1 161158Z 19006KT 03/00 A3014 RMK A01 T00340000  RH  079%=      5-min Rain = 0
KNH1 161159Z 19007KT 03/00 A3014 RMK A01 T00330000  RH  079%=      5-min Rain = 0
KNH1 161200Z 19007KT 03/00 A3014 RMK A01 T00330000  RH  079%=      5-min Rain = 0
KNH1 161201Z 19007KT 03/00 A3014 RMK A01 T00330000  RH  079%=      5-min Rain = 0
KNH1 161202Z 19007KT 03/00 A3014 RMK A01 T00330000  RH  079%=      5-min Rain = 0
KNH1 161203Z 19008KT 03/00 A3014 RMK A01 T00330000  RH  079%=      5-min Rain = 0
KNH1 161204Z 19007KT 03/00 A3014 RMK A01 T00330000  RH  079%=      5-min Rain = 0
KNH1 161205Z 19007KT 03/00 A3014 RMK A01 T00340000  RH  079%=      5-min Rain = 0
KNH1 161206Z 19007KT 03/00 A3014 RMK A01 T00330000  RH  079%=      5-min Rain = 0
KNH1 161207Z 19007KT 03/00 A3014 RMK A01 T00340000  RH  079%=      5-min Rain = 0
KNH1 161208Z 20007KT 03/00 A3014 RMK A01 T00340001  RH  079%=      5-min Rain = 0
KNH1 161209Z 19008KT 03/00 A3014 RMK A01 T00330000  RH  079%=      5-min Rain = 0
KNH1 161210Z 19007KT 03/00 A3014 RMK A01 T00330000  RH  079%=      5-min Rain = 0
KNH1 161211Z 19008KT 03/00 A3013 RMK A01 T00330001  RH  079%=      5-min Rain = 0
KNH1 161212Z 19007KT 03/00 A3013 RMK A01 T00330001  RH  079%=      5-min Rain = 0
KNH1 161213Z 19007KT 03/00 A3013 RMK A01 T00330001  RH  079%=      5-min Rain = 0
KNH1 161214Z 19007KT 03/00 A3013 RMK A01 T00330001  RH  079%=      5-min Rain = 0
KNH1 161215Z 19007KT 03/00 A3013 RMK A01 T00330001  RH  079%=      5-min Rain = 0
KNH1 161216Z 19007KT 03/00 A3013 RMK A01 T00330001  RH  079%=      5-min Rain = 0
KNH1 161217Z 20007KT 03/00 A3013 RMK A01 T00330001  RH  079%=      5-min Rain = 0
KNH1 161218Z 19007KT 03/00 A3013 RMK A01 T00330001  RH  079%=      5-min Rain = 0
KNH1 161219Z 20007KT 03/00 A3014 RMK A01 T00330001  RH  079%=      5-min Rain = 0
KNH1 161220Z 20007KT 03/00 A3014 RMK A01 T00330001  RH  079%=      5-min Rain = 0
KNH1 161221Z 20006KT 03/00 A3014 RMK A01 T00330001  RH  079%=      5-min Rain = 0
KNH1 161222Z 20007KT 03/00 A3014 RMK A01 T00330001  RH  080%=      5-min Rain = 0
KNH1 161223Z 19007KT 03/00 A3014 RMK A01 T00330001  RH  080%=      5-min Rain = 0
KNH1 161224Z 20007KT 03/00 A3014 RMK A01 T00330001  RH  079%=      5-min Rain = 0
KNH1 161225Z 20007KT 03/00 A3014 RMK A01 T00330001  RH  079%=      5-min Rain = 0
KNH1 161226Z 20006KT 03/00 A3014 RMK A01 T00330001  RH  079%=      5-min Rain = 0
KNH1 161227Z 20007KT 03/00 A3014 RMK A01 T00330001  RH  079%=      5-min Rain = 0
KNH1 161228Z 20007KT 03/00 A3014 RMK A01 T00330001  RH  079%=      5-min Rain = 0
KNH1 161229Z 20007KT 03/00 A3014 RMK A01 T00330001  RH  079%=      5-min Rain = 0
KNH1 161230Z 20007KT 03/00 A3014 RMK A01 T00330001  RH  079%=      5-min Rain = 0
KNH1 161231Z 20007KT 03/00 A3014 RMK A01 T00330001  RH  079%=      5-min Rain = 0
KNH1 161232Z 20007KT 03/00 A3014 RMK A01 T00330001  RH  079%=      5-min Rain = 0
KNH1 161233Z 20007KT 03/00 A3014 RMK A01 T00330001  RH  080%=      5-min Rain = 0
KNH1 161234Z 20007KT 03/00 A3014 RMK A01 T00330001  RH  079%=      5-min Rain = 0
KNH1 161235Z 20007KT 03/00 A3014 RMK A01 T00330001  RH  079%=      5-min Rain = 0
KNH1 161236Z 20006KT 03/00 A3014 RMK A01 T00330001  RH  079%=      5-min Rain = 0
KNH1 161237Z 20007KT 03/00 A3014 RMK A01 T00330001  RH  080%=      5-min Rain = 0
KNH1 161238Z 20007KT 03/00 A3014 RMK A01 T00320001  RH  080%=      5-min Rain = 0
KNH1 161239Z 20007KT 03/00 A3014 RMK A01 T00320001  RH  080%=      5-min Rain = 0
KNH1 161240Z 20007KT 03/00 A3014 RMK A01 T00320001  RH  080%=      5-min Rain = 0
KNH1 161241Z 20007KT 03/00 A3014 RMK A01 T00320001  RH  080%=      5-min Rain = 0
KNH1 161242Z 20007KT 03/00 A3014 RMK A01 T00320001  RH  080%=      5-min Rain = 0
KNH1 161243Z 20007KT 03/00 A3014 RMK A01 T00320001  RH  080%=      5-min Rain = 0
KNH1 161244Z 20007KT 03/00 A3014 RMK A01 T00320001  RH  080%=      5-min Rain = 0
KNH1 161245Z 20007KT 03/00 A3014 RMK A01 T00320001  RH  080%=      5-min Rain = 0
KNH1 161246Z 20006KT 03/00 A3014 RMK A01 T00320000  RH  080%=      5-min Rain = 0
KNH1 161247Z 20007KT 03/00 A3014 RMK A01 T00320000  RH  080%=      5-min Rain = 0
KNH1 161248Z 20007KT 03/00 A3014 RMK A01 T00320000  RH  080%=      5-min Rain = 0
KNH1 161249Z 20007KT 03/00 A3014 RMK A01 T00320000  RH  080%=      5-min Rain = 0
KNH1 161250Z 20007KT 03/00 A3014 RMK A01 T00320000  RH  080%=      5-min Rain = 0
KNH1 161251Z 20007KT 03/00 A3014 RMK A01 T00310000  RH  080%=      5-min Rain = 0
KNH1 161252Z 20008KT 03/00 A3014 RMK A01 T00310000  RH  080%=      5-min Rain = 0
KNH1 161253Z 20007KT 03/00 A3014 RMK A01 T00300000  RH  081%=      5-min Rain = 0
KNH1 161254Z 19007KT 03/00 A3014 RMK A01 T00300000  RH  081%=      5-min Rain = 0
KNH1 161255Z 19007KT 03/00 A3014 RMK A01 T00300000  RH  081%=      5-min Rain = 0
KNH1 161256Z 19007KT 03/00 A3014 RMK A01 T00300000  RH  081%=      5-min Rain = 0
KNH1 161257Z 20007KT 03/00 A3014 RMK A01 T00300000  RH  081%=      5-min Rain = 0
KNH1 161258Z 19008KT 03/00 A3014 RMK A01 T00300001  RH  081%=      5-min Rain = 0
KNH1 161259Z 20008KT 03/00 A3014 RMK A01 T00310001  RH  081%=      5-min Rain = 0
KNH1 161300Z 20008KT 03/00 A3014 RMK A01 T00310001  RH  080%=      5-min Rain = 0
KNH1 161301Z 20008KT 03/00 A3014 RMK A01 T00310000  RH  080%=      5-min Rain = 0
KNH1 161302Z 20008KT 03/00 A3014 RMK A01 T003100-0  RH  080%=      5-min Rain = 0
KNH1 161303Z 19008KT 03/00 A3014 RMK A01 T00310000  RH  080%=      5-min Rain = 0
KNH1 161304Z 19008KT 03/00 A3013 RMK A01 T00310000  RH  080%=      5-min Rain = 0
KNH1 161305Z 19008KT 03/00 A3013 RMK A01 T00310001  RH  080%=      5-min Rain = 0
KNH1 161306Z 19008KT 03/00 A3013 RMK A01 T00310000  RH  080%=      5-min Rain = 0
KNH1 161307Z 19008KT 03/00 A3013 RMK A01 T003100-0  RH  080%=      5-min Rain = 0
KNH1 161308Z 19008KT 03/00 A3013 RMK A01 T003100-0  RH  080%=      5-min Rain = 0
KNH1 161309Z 19008KT 03/00 A3013 RMK A01 T00310000  RH  080%=      5-min Rain = 0
KNH1 161310Z 19008KT 03/00 A3013 RMK A01 T003000-0  RH  080%=      5-min Rain = 0
KNH1 161311Z 19007KT 03/00 A3013 RMK A01 T003000-0  RH  080%=      5-min Rain = 0
KNH1 161312Z 19007KT 03/00 A3013 RMK A01 T003000-0  RH  080%=      5-min Rain = 0
KNH1 161313Z 19008KT 03/00 A3013 RMK A01 T003000-0  RH  081%=      5-min Rain = 0
KNH1 161314Z 19007KT 03/00 A3013 RMK A01 T003000-0  RH  081%=      5-min Rain = 0
KNH1 161315Z 19007KT 03/00 A3013 RMK A01 T002900-0  RH  081%=      5-min Rain = 0
KNH1 161316Z 19007KT 03/M00 A3013 RMK A01 T00291001  RH  081%=      5-min Rain = 0
KNH1 161317Z 19007KT 03/00 A3013 RMK A01 T002900-0  RH  081%=      5-min Rain = 0
KNH1 161318Z 19007KT 03/M00 A3013 RMK A01 T00281001  RH  081%=      5-min Rain = 0
KNH1 161319Z 19006KT 03/M00 A3013 RMK A01 T00281001  RH  081%=      5-min Rain = 0
KNH1 161320Z 19006KT 03/M00 A3013 RMK A01 T00281001  RH  082%=      5-min Rain = 0
KNH1 161321Z 19007KT 03/M00 A3013 RMK A01 T00271001  RH  082%=      5-min Rain = 0
KNH1 161322Z 19007KT 03/M00 A3013 RMK A01 T00271001  RH  082%=      5-min Rain = 0
KNH1 161323Z 19006KT 03/M00 A3014 RMK A01 T00271001  RH  082%=      5-min Rain = 0
KNH1 161324Z 19006KT 03/M00 A3014 RMK A01 T00261001  RH  082%=      5-min Rain = 0
KNH1 161325Z 19006KT 03/M00 A3014 RMK A01 T00251001  RH  083%=      5-min Rain = 0
KNH1 161326Z 19006KT 03/M00 A3014 RMK A01 T00251001  RH  083%=      5-min Rain = 0
KNH1 161327Z 19006KT 02/M00 A3014 RMK A01 T00241002  RH  083%=      5-min Rain = 0
KNH1 161328Z 19006KT 02/M00 A3014 RMK A01 T00231001  RH  084%=      5-min Rain = 0
KNH1 161329Z 20006KT 02/M00 A3014 RMK A01 T00231001  RH  084%=      5-min Rain = 0
KNH1 161330Z 19007KT 02/M00 A3014 RMK A01 T00231001  RH  084%=      5-min Rain = 0
KNH1 161331Z 19006KT 02/M00 A3014 RMK A01 T00231001  RH  084%=      5-min Rain = 0
KNH1 161332Z 20007KT 02/M00 A3014 RMK A01 T00241002  RH  083%=      5-min Rain = 0
KNH1 161333Z 19007KT 03/M00 A3014 RMK A01 T00251001  RH  083%=      5-min Rain = 0
KNH1 161334Z 19007KT 03/M00 A3014 RMK A01 T00251001  RH  083%=      5-min Rain = 0
KNH1 161335Z 19007KT 03/M00 A3014 RMK A01 T00251001  RH  083%=      5-min Rain = 0
KNH1 161336Z 19008KT 03/00 A3014 RMK A01 T002600-0  RH  083%=      5-min Rain = 0
KNH1 161337Z 19008KT 03/00 A3014 RMK A01 T002600-0  RH  083%=      5-min Rain = 0
KNH1 161338Z 19008KT 03/00 A3014 RMK A01 T002700-0  RH  082%=      5-min Rain = 0
KNH1 161339Z 19008KT 03/00 A3014 RMK A01 T00280000  RH  082%=      5-min Rain = 0
KNH1 161340Z 19008KT 03/00 A3014 RMK A01 T002800-0  RH  082%=      5-min Rain = 0
KNH1 161341Z 19008KT 03/00 A3014 RMK A01 T002900-0  RH  081%=      5-min Rain = 0
KNH1 161342Z 20007KT 03/00 A3014 RMK A01 T00290000  RH  081%=      5-min Rain = 0
KNH1 161343Z 19008KT 03/00 A3014 RMK A01 T00290000  RH  081%=      5-min Rain = 0
KNH1 161344Z 19008KT 03/00 A3014 RMK A01 T00290000  RH  081%=      5-min Rain = 0
KNH1 161345Z 19008KT 03/00 A3014 RMK A01 T00300000  RH  081%=      5-min Rain = 0
KNH1 161346Z 19008KT 03/00 A3014 RMK A01 T00300000  RH  081%=      5-min Rain = 0
KNH1 161347Z 19008KT 03/00 A3014 RMK A01 T00310001  RH  081%=      5-min Rain = 0
KNH1 161348Z 19008KT 03/00 A3014 RMK A01 T00310001  RH  081%=      5-min Rain = 0
KNH1 161349Z 19008KT 03/00 A3014 RMK A01 T00310001  RH  080%=      5-min Rain = 0
KNH1 161350Z 19008KT 03/00 A3014 RMK A01 T00320001  RH  080%=      5-min Rain = 0
KNH1 161351Z 19009KT 03/00 A3014 RMK A01 T00320001  RH  080%=      5-min Rain = 0
KNH1 161352Z 19008KT 03/00 A3014 RMK A01 T00330001  RH  080%=      5-min Rain = 0
KNH1 161353Z 19008KT 03/00 A3014 RMK A01 T00330001  RH  080%=      5-min Rain = 0
KNH1 161354Z 19008KT 03/00 A3014 RMK A01 T00330002  RH  080%=      5-min Rain = 0
KNH1 161355Z 19008KT 03/00 A3014 RMK A01 T00330002  RH  080%=      5-min Rain = 0
KNH1 161356Z 19007KT 03/00 A3014 RMK A01 T00340002  RH  080%=      5-min Rain = 0
KNH1 161357Z 19008KT 03/00 A3014 RMK A01 T00340002  RH  080%=      5-min Rain = 0
KNH1 161358Z 20008KT 03/00 A3014 RMK A01 T00340002  RH  080%=      5-min Rain = 0
KNH1 161359Z 20008KT 03/00 A3014 RMK A01 T00340002  RH  080%=      5-min Rain = 0
KNH1 161400Z 20008KT 03/00 A3014 RMK A01 T00340002  RH  080%=      5-min Rain = 0
KNH1 161401Z 19007KT 03/00 A3014 RMK A01 T00340002  RH  080%=      5-min Rain = 0
KNH1 161402Z 20007KT 03/00 A3014 RMK A01 T00340002  RH  080%=      5-min Rain = 0
KNH1 161403Z 20008KT 03/00 A3014 RMK A01 T00340002  RH  080%=      5-min Rain = 0
KNH1 161404Z 20007KT 03/00 A3014 RMK A01 T00340002  RH  080%=      5-min Rain = 0
KNH1 161405Z 20008KT 03/00 A3014 RMK A01 T00340002  RH  080%=      5-min Rain = 0
KNH1 161406Z 20007KT 03/00 A3014 RMK A01 T00340003  RH  080%=      5-min Rain = 0
KNH1 161407Z 20007KT 03/00 A3014 RMK A01 T00340003  RH  080%=      5-min Rain = 0
KNH1 161408Z 20007KT 03/00 A3015 RMK A01 T00340003  RH  080%=      5-min Rain = 0
KNH1 161409Z 20007KT 04/00 A3015 RMK A01 T00350003  RH  080%=      5-min Rain = 0
KNH1 161410Z 20008KT 04/00 A3015 RMK A01 T00350003  RH  080%=      5-min Rain = 0
KNH1 161411Z 20007KT 04/00 A3015 RMK A01 T00350003  RH  080%=      5-min Rain = 0
KNH1 161412Z 20007KT 04/00 A3015 RMK A01 T00350003  RH  080%=      5-min Rain = 0
KNH1 161413Z 20007KT 04/00 A3015 RMK A01 T00350003  RH  079%=      5-min Rain = 0
KNH1 161414Z 20007KT 04/00 A3015 RMK A01 T00350003  RH  079%=      5-min Rain = 0
KNH1 161415Z 20007KT 04/00 A3015 RMK A01 T00360004  RH  079%=      5-min Rain = 0
KNH1 161416Z 20007KT 04/00 A3015 RMK A01 T00370004  RH  079%=      5-min Rain = 0
KNH1 161417Z 20007KT 04/00 A3015 RMK A01 T00370004  RH  079%=      5-min Rain = 0
KNH1 161418Z 20007KT 04/00 A3015 RMK A01 T00380004  RH  079%=      5-min Rain = 0
KNH1 161419Z 20007KT 04/00 A3015 RMK A01 T00380004  RH  079%=      5-min Rain = 0
KNH1 161420Z 20006KT 04/00 A3015 RMK A01 T00380004  RH  078%=      5-min Rain = 0
KNH1 161421Z 20007KT 04/00 A3015 RMK A01 T00390004  RH  078%=      5-min Rain = 0
KNH1 161422Z 20007KT 04/01 A3015 RMK A01 T00390005  RH  078%=      5-min Rain = 0
KNH1 161423Z 20007KT 04/01 A3015 RMK A01 T00400005  RH  078%=      5-min Rain = 0
KNH1 161424Z 20007KT 04/00 A3015 RMK A01 T00390004  RH  078%=      5-min Rain = 0
KNH1 161425Z 20008KT 04/01 A3015 RMK A01 T00400005  RH  078%=      5-min Rain = 0
KNH1 161426Z 20007KT 04/01 A3015 RMK A01 T00410005  RH  078%=      5-min Rain = 0
KNH1 161427Z 20008KT 04/01 A3015 RMK A01 T00410005  RH  078%=      5-min Rain = 0
KNH1 161428Z 20007KT 04/01 A3015 RMK A01 T00420006  RH  077%=      5-min Rain = 0
KNH1 161429Z 20007KT 04/01 A3015 RMK A01 T00430006  RH  077%=      5-min Rain = 0
KNH1 161430Z 19008KT 04/01 A3015 RMK A01 T00430006  RH  076%=      5-min Rain = 0
KNH1 161431Z 20008KT 04/01 A3015 RMK A01 T00440006  RH  076%=      5-min Rain = 0
KNH1 161432Z 19007KT 04/01 A3015 RMK A01 T00440006  RH  076%=      5-min Rain = 0
KNH1 161433Z 20007KT 05/01 A3015 RMK A01 T00450007  RH  076%=      5-min Rain = 0
KNH1 161434Z 20009KT 05/01 A3015 RMK A01 T00460006  RH  075%=      5-min Rain = 0
KNH1 161435Z 20008KT 05/01 A3015 RMK A01 T00460006  RH  075%=      5-min Rain = 0
KNH1 161436Z 19007KT 05/01 A3014 RMK A01 T00470007  RH  075%=      5-min Rain = 0
KNH1 161437Z 19010KT 05/01 A3014 RMK A01 T00480008  RH  075%=      5-min Rain = 0
KNH1 161438Z 19009KT 05/01 A3014 RMK A01 T00480006  RH  074%=      5-min Rain = 0
KNH1 161439Z 19008KT 05/01 A3014 RMK A01 T00490007  RH  074%=      5-min Rain = 0
KNH1 161440Z 20009KT 05/01 A3014 RMK A01 T00500008  RH  074%=      5-min Rain = 0
KNH1 161441Z 19008KT 05/01 A3014 RMK A01 T00510008  RH  074%=      5-min Rain = 0
KNH1 161442Z 20008KT 05/01 A3014 RMK A01 T00520009  RH  074%=      5-min Rain = 0
KNH1 161443Z 20010KT 05/01 A3014 RMK A01 T00530008  RH  073%=      5-min Rain = 0
KNH1 161444Z 20011KT 05/01 A3014 RMK A01 T00530007  RH  072%=      5-min Rain = 0
KNH1 161445Z 19010KT 05/01 A3014 RMK A01 T00530007  RH  072%=      5-min Rain = 0
KNH1 161446Z 20010KT 05/01 A3014 RMK A01 T00540008  RH  072%=      5-min Rain = 0
KNH1 161447Z 19011KT 05/01 A3014 RMK A01 T00540008  RH  072%=      5-min Rain = 0
KNH1 161448Z 20011KT 06/01 A3014 RMK A01 T00550007  RH  071%=      5-min Rain = 0
KNH1 161449Z 19009KT 06/01 A3014 RMK A01 T00550007  RH  071%=      5-min Rain = 0
KNH1 161450Z 20008KT 06/01 A3014 RMK A01 T00560009  RH  072%=      5-min Rain = 0
KNH1 161451Z 20008KT 06/01 A3014 RMK A01 T00570010  RH  071%=      5-min Rain = 0
KNH1 161452Z 20010KT 06/01 A3014 RMK A01 T00580008  RH  070%=      5-min Rain = 0
KNH1 161453Z 20008KT 06/01 A3014 RMK A01 T00580008  RH  070%=      5-min Rain = 0
KNH1 161454Z 20012KT 06/01 A3014 RMK A01 T00590008  RH  070%=      5-min Rain = 0
KNH1 161455Z 20010KT 06/01 A3014 RMK A01 T00590007  RH  070%=      5-min Rain = 0
KNH1 161456Z 20009KT 06/01 A3014 RMK A01 T00590008  RH  070%=      5-min Rain = 0
KNH1 161457Z 20008KT 06/01 A3014 RMK A01 T00600009  RH  070%=      5-min Rain = 0
KNH1 161458Z 20008KT 06/01 A3014 RMK A01 T00610011  RH  070%=      5-min Rain = 0
KNH1 161459Z 20009KT 06/01 A3014 RMK A01 T00620010  RH  069%=      5-min Rain = 0
KNH1 161500Z 20011KT 06/01 A3014 RMK A01 T00620009  RH  069%=      5-min Rain = 0
KNH1 161501Z 20010KT 06/01 A3014 RMK A01 T00620009  RH  069%=      5-min Rain = 0
KNH1 161502Z 20008KT 06/01 A3014 RMK A01 T00620010  RH  069%=      5-min Rain = 0
KNH1 161503Z 20008KT 06/01 A3014 RMK A01 T00640011  RH  069%=      5-min Rain = 0
KNH1 161504Z 21008KT 07/01 A3014 RMK A01 T00650012  RH  069%=      5-min Rain = 0
KNH1 161505Z 20007KT 07/01 A3014 RMK A01 T00660011  RH  068%=      5-min Rain = 0
KNH1 161506Z 20008KT 07/01 A3014 RMK A01 T00670012  RH  068%=      5-min Rain = 0
KNH1 161507Z 20011KT 07/01 A3014 RMK A01 T00680011  RH  067%=      5-min Rain = 0
KNH1 161508Z 20012KT 07/01 A3014 RMK A01 T00680009  RH  066%=      5-min Rain = 0
KNH1 161509Z 21009KT 07/01 A3014 RMK A01 T00680009  RH  066%=      5-min Rain = 0
KNH1 161510Z 20011KT 07/01 A3014 RMK A01 T00690010  RH  066%=      5-min Rain = 0
KNH1 161511Z 20011KT 07/01 A3014 RMK A01 T00690009  RH  066%=      5-min Rain = 0
KNH1 161512Z 21010KT 07/01 A3014 RMK A01 T00690009  RH  066%=      5-min Rain = 0
KNH1 161513Z 21010KT 07/01 A3014 RMK A01 T00700009  RH  066%=      5-min Rain = 0
KNH1 161514Z 20011KT 07/01 A3014 RMK A01 T00710011  RH  066%=      5-min Rain = 0
KNH1 161515Z 21012KT 07/01 A3014 RMK A01 T00720011  RH  065%=      5-min Rain = 0
KNH1 161516Z 20012KT 07/01 A3014 RMK A01 T00720010  RH  065%=      5-min Rain = 0
KNH1 161517Z 20013KT 07/01 A3014 RMK A01 T00730010  RH  064%=      5-min Rain = 0
KNH1 161518Z 20011KT 07/01 A3014 RMK A01 T00730010  RH  064%=      5-min Rain = 0
KNH1 161519Z 20009KT 07/01 A3014 RMK A01 T00730011  RH  065%=      5-min Rain = 0
KNH1 161520Z 21009KT 07/01 A3014 RMK A01 T00740011  RH  065%=      5-min Rain = 0
KNH1 161521Z 20013KT 07/01 A3014 RMK A01 T00740010  RH  064%=      5-min Rain = 0
KNH1 161522Z 21011KT 07/01 A3014 RMK A01 T00740010  RH  064%=      5-min Rain = 0
KNH1 161523Z 21010KT 07/01 A3014 RMK A01 T00740011  RH  064%=      5-min Rain = 0
KNH1 161524Z 21009KT 08/01 A3014 RMK A01 T00750012  RH  064%=      5-min Rain = 0
KNH1 161525Z 21011KT 08/01 A3014 RMK A01 T00760012  RH  064%=      5-min Rain = 0
KNH1 161526Z 21013KT 08/01 A3014 RMK A01 T00760011  RH  064%=      5-min Rain = 0
KNH1 161527Z 21011KT 08/01 A3014 RMK A01 T00760011  RH  063%=      5-min Rain = 0
KNH1 161528Z 21011KT 08/01 A3014 RMK A01 T00760011  RH  064%=      5-min Rain = 0
KNH1 161529Z 21011KT 08/01 A3014 RMK A01 T00770011  RH  063%=      5-min Rain = 0
KNH1 161530Z 21011KT 08/01 A3014 RMK A01 T00760011  RH  063%=      5-min Rain = 0
KNH1 161531Z 21010KT 08/01 A3014 RMK A01 T00770012  RH  063%=      5-min Rain = 0
KNH1 161532Z 21010KT 08/01 A3014 RMK A01 T00780013  RH  063%=      5-min Rain = 0
KNH1 161533Z 21012KT 08/01 A3014 RMK A01 T00790012  RH  063%=      5-min Rain = 0
KNH1 161534Z 20011KT 08/01 A3014 RMK A01 T00790011  RH  062%=      5-min Rain = 0
KNH1 161535Z 21013KT 08/01 A3014 RMK A01 T00800012  RH  062%=      5-min Rain = 0
KNH1 161536Z 21012KT 08/01 A3014 RMK A01 T00810012  RH  062%=      5-min Rain = 0
KNH1 161537Z 21012KT 08/01 A3014 RMK A01 T00820012  RH  061%=      5-min Rain = 0
KNH1 161538Z 21012KT 08/01 A3014 RMK A01 T00820012  RH  061%=      5-min Rain = 0
KNH1 161539Z 20014KT 08/01 A3014 RMK A01 T00830012  RH  061%=      5-min Rain = 0
KNH1 161540Z 21014KT 08/01 A3014 RMK A01 T00840012  RH  060%=      5-min Rain = 0
KNH1 161541Z 21011KT 08/01 A3014 RMK A01 T00840011  RH  060%=      5-min Rain = 0
KNH1 161542Z 21012KT 08/01 A3014 RMK A01 T00840012  RH  061%=      5-min Rain = 0
KNH1 161543Z 21013KT 09/01 A3014 RMK A01 T00850013  RH  060%=      5-min Rain = 0
KNH1 161544Z 21012KT 09/01 A3014 RMK A01 T00850012  RH  060%=      5-min Rain = 0
KNH1 161545Z 21011KT 09/01 A3014 RMK A01 T00860014  RH  060%=      5-min Rain = 0
KNH1 161546Z 21010KT 09/02 A3014 RMK A01 T00880015  RH  060%=      5-min Rain = 0
KNH1 161547Z 21012KT 09/02 A3013 RMK A01 T00890015  RH  060%=      5-min Rain = 0
KNH1 161548Z 22012KT 09/01 A3013 RMK A01 T00900014  RH  059%=      5-min Rain = 0
KNH1 161549Z 21013KT 09/01 A3013 RMK A01 T00900014  RH  059%=      5-min Rain = 0
KNH1 161550Z 22014KT 09/01 A3013 RMK A01 T00900014  RH  059%=      5-min Rain = 0
KNH1 161551Z 22012KT 09/01 A3013 RMK A01 T00900014  RH  059%=      5-min Rain = 0
KNH1 161552Z 21013KT 09/02 A3013 RMK A01 T00900015  RH  059%=      5-min Rain = 0
KNH1 161553Z 22013KT 09/01 A3013 RMK A01 T00900014  RH  059%=      5-min Rain = 0
KNH1 161554Z 21012KT 09/01 A3013 RMK A01 T00900014  RH  059%=      5-min Rain = 0
KNH1 161555Z 21013KT 09/01 A3013 RMK A01 T00880013  RH  059%=      5-min Rain = 0
KNH1 161556Z 21012KT 09/01 A3013 RMK A01 T00880013  RH  059%=      5-min Rain = 0
KNH1 161557Z 21012KT 09/01 A3013 RMK A01 T00870013  RH  060%=      5-min Rain = 0
KNH1 161558Z 22011KT 09/01 A3013 RMK A01 T00880014  RH  060%=      5-min Rain = 0
KNH1 161559Z 22012KT 09/02 A3013 RMK A01 T00890016  RH  060%=      5-min Rain = 0
KNH1 161600Z 21012KT 09/02 A3013 RMK A01 T00900015  RH  059%=      5-min Rain = 0
KNH1 161601Z 21011KT 09/02 A3013 RMK A01 T00900015  RH  059%=      5-min Rain = 0
KNH1 161602Z 20011KT 09/02 A3013 RMK A01 T00910016  RH  059%=      5-min Rain = 0
KNH1 161603Z 20011KT 09/02 A3013 RMK A01 T00920016  RH  059%=      5-min Rain = 0
KNH1 161604Z 21010KT 09/02 A3013 RMK A01 T00940017  RH  059%=      5-min Rain = 0
KNH1 161605Z 22014KT 10/02 A3013 RMK A01 T00950016  RH  058%=      5-min Rain = 0
KNH1 161606Z 21012KT 10/02 A3013 RMK A01 T00950016  RH  058%=      5-min Rain = 0
KNH1 161607Z 22012KT 10/02 A3013 RMK A01 T00960016  RH  058%=      5-min Rain = 0
KNH1 161608Z 21010KT 10/02 A3013 RMK A01 T00950016  RH  058%=      5-min Rain = 0
KNH1 161609Z 22011KT 10/02 A3013 RMK A01 T00970020  RH  058%=      5-min Rain = 0
KNH1 161610Z 21010KT 10/02 A3013 RMK A01 T00990018  RH  057%=      5-min Rain = 0
KNH1 161611Z 21011KT 10/02 A3013 RMK A01 T01000020  RH  057%=      5-min Rain = 0
KNH1 161612Z 21013KT 10/02 A3013 RMK A01 T01010018  RH  056%=      5-min Rain = 0
KNH1 161613Z 22012KT 10/02 A3013 RMK A01 T01010018  RH  056%=      5-min Rain = 0
KNH1 161614Z 22011KT 10/02 A3013 RMK A01 T01000017  RH  056%=      5-min Rain = 0
KNH1 161615Z 22010KT 10/02 A3013 RMK A01 T01000019  RH  057%=      5-min Rain = 0
KNH1 161616Z 21011KT 10/02 A3013 RMK A01 T01030021  RH  057%=      5-min Rain = 0
KNH1 161617Z 21012KT 10/02 A3013 RMK A01 T01040019  RH  056%=      5-min Rain = 0
KNH1 161618Z 22012KT 10/02 A3013 RMK A01 T01030018  RH  056%=      5-min Rain = 0
KNH1 161619Z 22011KT 10/02 A3013 RMK A01 T01030020  RH  056%=      5-min Rain = 0
KNH1 161620Z 22012KT 10/02 A3013 RMK A01 T01030019  RH  056%=      5-min Rain = 0
KNH1 161621Z 22013KT 10/02 A3013 RMK A01 T01040018  RH  055%=      5-min Rain = 0
KNH1 161622Z 21012KT 10/02 A3013 RMK A01 T01030018  RH  056%=      5-min Rain = 0
KNH1 161623Z 22012KT 10/02 A3013 RMK A01 T01030019  RH  056%=      5-min Rain = 0
KNH1 161624Z 22011KT 10/02 A3013 RMK A01 T01040020  RH  056%=      5-min Rain = 0
KNH1 161625Z 21009KT 11/02 A3013 RMK A01 T01050020  RH  056%=      5-min Rain = 0
KNH1 161626Z 21010KT 11/02 A3013 RMK A01 T01070022  RH  056%=      5-min Rain = 0
KNH1 161627Z 22011KT 11/02 A3013 RMK A01 T01080020  RH  055%=      5-min Rain = 0
KNH1 161628Z 22011KT 11/02 A3013 RMK A01 T01070020  RH  055%=      5-min Rain = 0
KNH1 161629Z 22011KT 11/02 A3013 RMK A01 T01070020  RH  055%=      5-min Rain = 0
KNH1 161630Z 22010KT 11/02 A3013 RMK A01 T01060020  RH  055%=      5-min Rain = 0
KNH1 161631Z 21010KT 11/02 A3013 RMK A01 T01080022  RH  055%=      5-min Rain = 0
KNH1 161632Z 22011KT 11/02 A3013 RMK A01 T01080020  RH  055%=      5-min Rain = 0
KNH1 161633Z 22012KT 11/02 A3013 RMK A01 T01070021  RH  055%=      5-min Rain = 0
KNH1 161634Z 22012KT 11/02 A3013 RMK A01 T01070020  RH  055%=      5-min Rain = 0
KNH1 161635Z 21012KT 11/02 A3013 RMK A01 T01060020  RH  055%=      5-min Rain = 0
KNH1 161636Z 20010KT 11/02 A3013 RMK A01 T01060019  RH  055%=      5-min Rain = 0
KNH1 161637Z 20008KT 11/02 A3013 RMK A01 T01060019  RH  055%=      5-min Rain = 0
KNH1 161638Z 20009KT 11/02 A3013 RMK A01 T01080021  RH  055%=      5-min Rain = 0
KNH1 161639Z 20011KT 11/02 A3013 RMK A01 T01090021  RH  054%=      5-min Rain = 0
KNH1 161640Z 21011KT 11/02 A3012 RMK A01 T01100019  RH  054%=      5-min Rain = 0
KNH1 161641Z 20010KT 11/02 A3012 RMK A01 T01100020  RH  054%=      5-min Rain = 0
KNH1 161642Z 20009KT 11/02 A3012 RMK A01 T01110021  RH  054%=      5-min Rain = 0
KNH1 161643Z 19010KT 11/02 A3012 RMK A01 T01120021  RH  053%=      5-min Rain = 0
KNH1 161644Z 20009KT 11/02 A3012 RMK A01 T01120021  RH  053%=      5-min Rain = 0
KNH1 161645Z 21009KT 11/02 A3012 RMK A01 T01130021  RH  053%=      5-min Rain = 0
KNH1 161646Z 22009KT 11/02 A3012 RMK A01 T01130022  RH  053%=      5-min Rain = 0
KNH1 161647Z 21010KT 12/02 A3012 RMK A01 T01150022  RH  053%=      5-min Rain = 0
KNH1 161648Z 21010KT 12/02 A3012 RMK A01 T01160021  RH  052%=      5-min Rain = 0
KNH1 161649Z 21010KT 12/02 A3012 RMK A01 T01170022  RH  052%=      5-min Rain = 0
KNH1 161650Z 20008KT 12/02 A3012 RMK A01 T01170022  RH  052%=      5-min Rain = 0
KNH1 161651Z 20010KT 12/02 A3012 RMK A01 T01180022  RH  052%=      5-min Rain = 0
KNH1 161652Z 21010KT 12/02 A3012 RMK A01 T01180021  RH  051%=      5-min Rain = 0
KNH1 161653Z 21009KT 12/02 A3012 RMK A01 T01190021  RH  051%=      5-min Rain = 0
KNH1 161654Z 21008KT 12/02 A3012 RMK A01 T01190023  RH  052%=      5-min Rain = 0
KNH1 161655Z 21011KT 12/02 A3012 RMK A01 T01210023  RH  051%=      5-min Rain = 0
KNH1 161656Z 21011KT 12/02 A3012 RMK A01 T01220022  RH  050%=      5-min Rain = 0
KNH1 161657Z 21009KT 12/02 A3012 RMK A01 T01230023  RH  050%=      5-min Rain = 0
KNH1 161658Z 21012KT 12/02 A3012 RMK A01 T01240023  RH  050%=      5-min Rain = 0
KNH1 161659Z 20008KT 12/02 A3012 RMK A01 T01240022  RH  050%=      5-min Rain = 0
KNH1 161700Z 19008KT 13/03 A3011 RMK A01 T01260025  RH  050%=      5-min Rain = 0
KNH1 161701Z 21010KT 13/02 A3011 RMK A01 T01280024  RH  049%=      5-min Rain = 0
KNH1 161702Z 21010KT 13/02 A3011 RMK A01 T01280023  RH  049%=      5-min Rain = 0
KNH1 161703Z 21009KT 13/02 A3011 RMK A01 T01270021  RH  049%=      5-min Rain = 0
KNH1 161704Z 20009KT 13/02 A3011 RMK A01 T01260022  RH  049%=      5-min Rain = 0
KNH1 161705Z 19010KT 13/02 A3011 RMK A01 T01270023  RH  049%=      5-min Rain = 0
KNH1 161706Z 20009KT 13/02 A3011 RMK A01 T01260023  RH  049%=      5-min Rain = 0
KNH1 161707Z 21008KT 13/02 A3011 RMK A01 T01270024  RH  049%=      5-min Rain = 0
KNH1 161708Z 21009KT 13/02 A3011 RMK A01 T01280023  RH  049%=      5-min Rain = 0
KNH1 161709Z 20008KT 13/03 A3011 RMK A01 T01280025  RH  049%=      5-min Rain = 0
KNH1 161710Z 20010KT 13/03 A3011 RMK A01 T01290025  RH  049%=      5-min Rain = 0
KNH1 161711Z 19009KT 13/02 A3011 RMK A01 T01290023  RH  049%=      5-min Rain = 0
KNH1 161712Z 20009KT 13/02 A3011 RMK A01 T01290024  RH  049%=      5-min Rain = 0
KNH1 161713Z 21011KT 13/02 A3011 RMK A01 T01290022  RH  048%=      5-min Rain = 0
KNH1 161714Z 21009KT 13/02 A3011 RMK A01 T01280021  RH  048%=      5-min Rain = 0
KNH1 161715Z 21010KT 13/02 A3011 RMK A01 T01270021  RH  048%=      5-min Rain = 0
KNH1 161716Z 20009KT 13/02 A3011 RMK A01 T01270021  RH  048%=      5-min Rain = 0
KNH1 161717Z 19009KT 13/02 A3011 RMK A01 T01270024  RH  049%=      5-min Rain = 0
KNH1 161718Z 19008KT 13/02 A3011 RMK A01 T01290024  RH  049%=      5-min Rain = 0
KNH1 161719Z 19009KT 13/03 A3011 RMK A01 T01300026  RH  049%=      5-min Rain = 0
KNH1 161720Z 20009KT 13/02 A3011 RMK A01 T01310024  RH  048%=      5-min Rain = 0
KNH1 161721Z 18010KT 13/02 A3011 RMK A01 T01310023  RH  048%=      5-min Rain = 0
KNH1 161722Z 21010KT 13/02 A3011 RMK A01 T01290023  RH  048%=      5-min Rain = 0
KNH1 161723Z 20010KT 13/02 A3011 RMK A01 T01300022  RH  048%=      5-min Rain = 0
KNH1 161724Z 20009KT 13/02 A3011 RMK A01 T01290023  RH  048%=      5-min Rain = 0
KNH1 161725Z 19011KT 13/02 A3011 RMK A01 T01290023  RH  048%=      5-min Rain = 0
KNH1 161726Z 19010KT 13/02 A3011 RMK A01 T01280021  RH  048%=      5-min Rain = 0
KNH1 161727Z 20009KT 13/02 A301 RMK A01 T01270022  RH  049%=      5-min Rain = 0
KNH1 161728Z 18010KT 13/02 A301 RMK A01 T01270022  RH  049%=      5-min Rain = 0
KNH1 161729Z 19009KT 13/02 A301 RMK A01 T01280023  RH  049%=      5-min Rain = 0
KNH1 161730Z 20009KT 13/02 A301 RMK A01 T01280023  RH  049%=      5-min Rain = 0
KNH1 161731Z 19008KT 13/02 A301 RMK A01 T01290024  RH  049%=      5-min Rain = 0
KNH1 161732Z 20009KT 13/02 A301 RMK A01 T01320023  RH  048%=      5-min Rain = 0
KNH1 161733Z 20008KT 13/02 A301 RMK A01 T01310021  RH  047%=      5-min Rain = 0
KNH1 161734Z 20009KT 13/02 A301 RMK A01 T01300021  RH  048%=      5-min Rain = 0
KNH1 161735Z 18010KT 13/02 A301 RMK A01 T01300022  RH  048%=      5-min Rain = 0
KNH1 161736Z 19009KT 13/02 A301 RMK A01 T01290021  RH  048%=      5-min Rain = 0
KNH1 161737Z 20009KT 13/02 A301 RMK A01 T01290021  RH  048%=      5-min Rain = 0
KNH1 161738Z 20009KT 13/02 A301 RMK A01 T01290022  RH  048%=      5-min Rain = 0
KNH1 161739Z 21007KT 13/02 A301 RMK A01 T01310022  RH  047%=      5-min Rain = 0
KNH1 161740Z 20008KT 13/02 A301 RMK A01 T01310022  RH  047%=      5-min Rain = 0
KNH1 161741Z 20011KT 13/02 A301 RMK A01 T01320022  RH  047%=      5-min Rain = 0
KNH1 161742Z 20010KT 13/02 A301 RMK A01 T01320019  RH  046%=      5-min Rain = 0
KNH1 161743Z 20009KT 13/02 A301 RMK A01 T01300019  RH  047%=      5-min Rain = 0
KNH1 161744Z 19008KT 13/02 A301 RMK A01 T01310021  RH  047%=      5-min Rain = 0
KNH1 161745Z 19008KT 13/02 A301 RMK A01 T01320021  RH  047%=      5-min Rain = 0
KNH1 161746Z 20009KT 13/02 A301 RMK A01 T01330022  RH  047%=      5-min Rain = 0
KNH1 161747Z 19009KT 13/02 A301 RMK A01 T01340022  RH  047%=      5-min Rain = 0
KNH1 161748Z 20009KT 14/02 A301 RMK A01 T01350022  RH  046%=      5-min Rain = 0
KNH1 161749Z 19009KT 14/02 A3009 RMK A01 T01360021  RH  046%=      5-min Rain = 0
KNH1 161750Z 20009KT 14/02 A3009 RMK A01 T01360021  RH  046%=      5-min Rain = 0
KNH1 161751Z 19008KT 14/02 A3009 RMK A01 T01360021  RH  046%=      5-min Rain = 0
KNH1 161752Z 19009KT 14/02 A3009 RMK A01 T01370024  RH  046%=      5-min Rain = 0
KNH1 161753Z 20008KT 14/02 A3009 RMK A01 T01390024  RH  046%=      5-min Rain = 0
KNH1 161754Z 18009KT 14/03 A3009 RMK A01 T01400025  RH  046%=      5-min Rain = 0
KNH1 161755Z 18008KT 14/03 A3009 RMK A01 T01430026  RH  045%=      5-min Rain = 0
KNH1 161756Z 19009KT 14/03 A3009 RMK A01 T01440025  RH  045%=      5-min Rain = 0
KNH1 161757Z 20008KT 15/03 A3009 RMK A01 T01460025  RH  044%=      5-min Rain = 0
KNH1 161758Z 19008KT 15/02 A3008 RMK A01 T01480024  RH  043%=      5-min Rain = 0
KNH1 161759Z 19009KT 15/03 A3008 RMK A01 T01490026  RH  044%=      5-min Rain = 0
KNH1 161800Z 19007KT 15/02 A3008 RMK A01 T01500024  RH  043%=      5-min Rain = 0
KNH1 161801Z 20009KT 15/03 A3008 RMK A01 T01510027  RH  043%=      5-min Rain = 0
KNH1 161802Z 20008KT 15/03 A3008 RMK A01 T01530026  RH  042%=      5-min Rain = 0
KNH1 161803Z 19008KT 16/03 A3008 RMK A01 T01550026  RH  042%=      5-min Rain = 0
KNH1 161804Z 19010KT 16/02 A3008 RMK A01 T01560023  RH  041%=      5-min Rain = 0
KNH1 161805Z 19010KT 16/02 A3008 RMK A01 T01560022  RH  041%=      5-min Rain = 0
KNH1 161806Z 20008KT 15/02 A3008 RMK A01 T01540022  RH  041%=      5-min Rain = 0
KNH1 161807Z 20008KT 15/02 A3008 RMK A01 T01540024  RH  041%=      5-min Rain = 0
KNH1 161808Z 20011KT 15/02 A3008 RMK A01 T01540024  RH  041%=      5-min Rain = 0
KNH1 161809Z 19012KT 16/02 A3008 RMK A01 T01550022  RH  041%=      5-min Rain = 0
KNH1 161810Z 18008KT 16/02 A3008 RMK A01 T01560022  RH  041%=      5-min Rain = 0
KNH1 161811Z 19011KT 16/02 A3007 RMK A01 T01560024  RH  041%=      5-min Rain = 0
KNH1 161812Z 20011KT 16/02 A3008 RMK A01 T01580022  RH  040%=      5-min Rain = 0
KNH1 161813Z 19010KT 16/02 A3007 RMK A01 T01560021  RH  040%=      5-min Rain = 0
KNH1 161814Z 20012KT 16/02 A3007 RMK A01 T01560020  RH  040%=      5-min Rain = 0
KNH1 161815Z 20011KT 16/02 A3007 RMK A01 T01560020  RH  040%=      5-min Rain = 0
KNH1 161816Z 21011KT 16/02 A3007 RMK A01 T01560020  RH  040%=      5-min Rain = 0
KNH1 161817Z 20009KT 16/02 A3007 RMK A01 T01560020  RH  040%=      5-min Rain = 0
KNH1 161818Z 20010KT 16/02 A3007 RMK A01 T01560020  RH  040%=      5-min Rain = 0
KNH1 161819Z 19011KT 16/02 A3007 RMK A01 T01560021  RH  040%=      5-min Rain = 0
KNH1 161820Z 19012KT 16/02 A3007 RMK A01 T01560021  RH  040%=      5-min Rain = 0
KNH1 161821Z 19012KT 15/02 A3007 RMK A01 T01540020  RH  040%=      5-min Rain = 0
KNH1 161822Z 19012KT 15/02 A3007 RMK A01 T01530020  RH  041%=      5-min Rain = 0
KNH1 161823Z 19013KT 15/02 A3007 RMK A01 T01530021  RH  041%=      5-min Rain = 0
KNH1 161824Z 19011KT 15/02 A3007 RMK A01 T01530020  RH  041%=      5-min Rain = 0
KNH1 161825Z 19011KT 15/02 A3007 RMK A01 T01530019  RH  040%=      5-min Rain = 0
KNH1 161826Z 20009KT 15/02 A3006 RMK A01 T01530021  RH  041%=      5-min Rain = 0
KNH1 161827Z 18010KT 16/02 A3006 RMK A01 T01550023  RH  041%=      5-min Rain = 0
KNH1 161828Z 18012KT 16/02 A3006 RMK A01 T01550023  RH  041%=      5-min Rain = 0
KNH1 161829Z 18011KT 15/02 A3006 RMK A01 T01520023  RH  042%=      5-min Rain = 0
KNH1 161830Z 19010KT 15/03 A3006 RMK A01 T01520025  RH  042%=      5-min Rain = 0
KNH1 161831Z 19010KT 15/02 A3006 RMK A01 T01520024  RH  042%=      5-min Rain = 0
KNH1 161832Z 20011KT 15/02 A3006 RMK A01 T01530022  RH  041%=      5-min Rain = 0
KNH1 161833Z 21012KT 15/02 A3006 RMK A01 T01540021  RH  041%=      5-min Rain = 0
KNH1 161834Z 20010KT 15/02 A3006 RMK A01 T01530021  RH  041%=      5-min Rain = 0
KNH1 161835Z 20009KT 15/02 A3006 RMK A01 T01540022  RH  041%=      5-min Rain = 0
KNH1 161836Z 20010KT 16/02 A3006 RMK A01 T01550019  RH  040%=      5-min Rain = 0
KNH1 161837Z 19010KT 16/02 A3006 RMK A01 T01550021  RH  041%=      5-min Rain = 0
KNH1 161838Z 18009KT 16/02 A3006 RMK A01 T01550024  RH  041%=      5-min Rain = 0
KNH1 161839Z 19010KT 16/03 A3006 RMK A01 T01550025  RH  042%=      5-min Rain = 0
KNH1 161840Z 19011KT 16/02 A3006 RMK A01 T01550023  RH  041%=      5-min Rain = 0
KNH1 161841Z 19012KT 16/02 A3006 RMK A01 T01550023  RH  041%=      5-min Rain = 0
KNH1 161842Z 19011KT 15/02 A3006 RMK A01 T01540022  RH  041%=      5-min Rain = 0
KNH1 161843Z 19009KT 15/02 A3005 RMK A01 T01530023  RH  041%=      5-min Rain = 0
KNH1 161844Z 19010KT 15/02 A3005 RMK A01 T01530024  RH  042%=      5-min Rain = 0
KNH1 161845Z 19010KT 15/02 A3005 RMK A01 T01540024  RH  042%=      5-min Rain = 0
KNH1 161846Z 19010KT 15/03 A3005 RMK A01 T01540025  RH  042%=      5-min Rain = 0
KNH1 161847Z 19010KT 15/02 A3005 RMK A01 T01530023  RH  041%=      5-min Rain = 0
KNH1 161848Z 20010KT 15/02 A3005 RMK A01 T01520023  RH  042%=      5-min Rain = 0
KNH1 161849Z 19009KT 15/02 A3005 RMK A01 T01520023  RH  042%=      5-min Rain = 0
KNH1 161850Z 18009KT 15/03 A3005 RMK A01 T01520025  RH  042%=      5-min Rain = 0
KNH1 161851Z 20010KT 15/03 A3005 RMK A01 T01540025  RH  042%=      5-min Rain = 0
KNH1 161852Z 19011KT 15/02 A3005 RMK A01 T01540024  RH  042%=      5-min Rain = 0
KNH1 161853Z 19010KT 15/02 A3005 RMK A01 T01540023  RH  041%=      5-min Rain = 0
KNH1 161854Z 20010KT 15/02 A3005 RMK A01 T01530023  RH  041%=      5-min Rain = 0
KNH1 161855Z 21009KT 15/02 A3005 RMK A01 T01530022  RH  041%=      5-min Rain = 0
KNH1 161856Z 19010KT 15/02 A3005 RMK A01 T01520024  RH  042%=      5-min Rain = 0
KNH1 161857Z 18013KT 15/02 A3005 RMK A01 T01540024  RH  042%=      5-min Rain = 0
KNH1 161858Z 20012KT 15/02 A3005 RMK A01 T01540023  RH  041%=      5-min Rain = 0
KNH1 161859Z 20010KT 16/02 A3005 RMK A01 T01550022  RH  041%=      5-min Rain = 0
KNH1 161900Z 20009G14KT 15/02 A3004 RMK A01 T01540023  RH  041%=      5-min Rain = 0
KNH1 161901Z 21012KT 16/02 A3004 RMK A01 T01560023  RH  041%=      5-min Rain = 0
KNH1 161902Z 20011KT 16/02 A3004 RMK A01 T01570022  RH  040%=      5-min Rain = 0
KNH1 161903Z 21008KT 16/02 A3004 RMK A01 T01580022  RH  040%=      5-min Rain = 0
KNH1 161904Z 20010KT 16/02 A3004 RMK A01 T01580023  RH  040%=      5-min Rain = 0
KNH1 161905Z 19010KT 16/02 A3004 RMK A01 T01600024  RH  040%=      5-min Rain = 0
KNH1 161906Z 21009KT 16/02 A3004 RMK A01 T01610024  RH  040%=      5-min Rain = 0
KNH1 161907Z 21010KT 16/02 A3004 RMK A01 T01610023  RH  039%=      5-min Rain = 0
KNH1 161908Z 20010KT 16/02 A3004 RMK A01 T01610024  RH  040%=      5-min Rain = 0
KNH1 161909Z 20011KT 16/03 A3004 RMK A01 T01610025  RH  040%=      5-min Rain = 0
KNH1 161910Z 19009KT 16/03 A3004 RMK A01 T01610025  RH  040%=      5-min Rain = 0
KNH1 161911Z 21010KT 16/03 A3004 RMK A01 T01610025  RH  040%=      5-min Rain = 0
KNH1 161912Z 19010KT 16/02 A3004 RMK A01 T01620024  RH  040%=      5-min Rain = 0
KNH1 161913Z 20010KT 16/02 A3004 RMK A01 T01610023  RH  040%=      5-min Rain = 0
KNH1 161914Z 21010KT 16/02 A3004 RMK A01 T01600024  RH  040%=      5-min Rain = 0
KNH1 161915Z 21009KT 16/02 A3004 RMK A01 T01600024  RH  040%=      5-min Rain = 0
KNH1 161916Z 21012KT 16/03 A3003 RMK A01 T01620026  RH  040%=      5-min Rain = 0
KNH1 161917Z 20011KT 16/02 A3003 RMK A01 T01630023  RH  039%=      5-min Rain = 0
KNH1 161918Z 20009KT 16/02 A3003 RMK A01 T01620023  RH  039%=      5-min Rain = 0
KNH1 161919Z 20009KT 16/03 A3003 RMK A01 T01620025  RH  040%=      5-min Rain = 0
KNH1 161920Z 21011KT 16/02 A3003 RMK A01 T01630023  RH  039%=      5-min Rain = 0
KNH1 161921Z 20011KT 16/02 A3003 RMK A01 T01620022  RH  039%=      5-min Rain = 0
KNH1 161922Z 20011KT 16/02 A3003 RMK A01 T01600021  RH  039%=      5-min Rain = 0
KNH1 161923Z 21013KT 16/02 A3003 RMK A01 T01600022  RH  039%=      5-min Rain = 0
KNH1 161924Z 20010KT 16/02 A3003 RMK A01 T01590022  RH  040%=      5-min Rain = 0
KNH1 161925Z 19011KT 16/03 A3003 RMK A01 T01600025  RH  040%=      5-min Rain = 0
KNH1 161926Z 19011KT 16/03 A3003 RMK A01 T01610025  RH  040%=      5-min Rain = 0
KNH1 161927Z 19011KT 16/03 A3003 RMK A01 T01600025  RH  040%=      5-min Rain = 0
KNH1 161928Z 19011KT 16/03 A3003 RMK A01 T01600026  RH  040%=      5-min Rain = 0
KNH1 161929Z 20010KT 16/03 A3003 RMK A01 T01610027  RH  041%=      5-min Rain = 0
KNH1 161930Z 19011KT 16/03 A3003 RMK A01 T01630028  RH  040%=      5-min Rain = 0
KNH1 161931Z 20011KT 16/03 A3003 RMK A01 T01630027  RH  040%=      5-min Rain = 0
KNH1 161932Z 20011KT 16/03 A3003 RMK A01 T01620027  RH  040%=      5-min Rain = 0
KNH1 161933Z 21009KT 16/03 A3003 RMK A01 T01630025  RH  039%=      5-min Rain = 0
KNH1 161934Z 20010KT 16/03 A3003 RMK A01 T01640026  RH  039%=      5-min Rain = 0
KNH1 161935Z 19012KT 17/02 A3002 RMK A01 T01660024  RH  039%=      5-min Rain = 0
KNH1 161936Z 20014KT 17/02 A3002 RMK A01 T01650022  RH  038%=      5-min Rain = 0
KNH1 161937Z 20012KT 16/02 A3002 RMK A01 T01630021  RH  038%=      5-min Rain = 0
KNH1 161938Z 20012KT 16/02 A3002 RMK A01 T01620021  RH  039%=      5-min Rain = 0
KNH1 161939Z 20010KT 16/02 A3002 RMK A01 T01610021  RH  039%=      5-min Rain = 0
KNH1 161940Z 20011KT 16/02 A3002 RMK A01 T01610020  RH  039%=      5-min Rain = 0
KNH1 161941Z 20011KT 16/02 A3002 RMK A01 T01610021  RH  039%=      5-min Rain = 0
KNH1 161942Z 21010KT 16/02 A3002 RMK A01 T01610021  RH  039%=      5-min Rain = 0
KNH1 161943Z 21012KT 16/02 A3002 RMK A01 T01620022  RH  039%=      5-min Rain = 0
KNH1 161944Z 21012KT 16/02 A3002 RMK A01 T01620021  RH  039%=      5-min Rain = 0
KNH1 161945Z 21012KT 16/02 A3002 RMK A01 T01620020  RH  038%=      5-min Rain = 0
KNH1 161946Z 21011KT 16/02 A3002 RMK A01 T01610021  RH  039%=      5-min Rain = 0
KNH1 161947Z 20013KT 16/02 A3002 RMK A01 T01610023  RH  039%=      5-min Rain = 0
KNH1 161948Z 20010KT 16/03 A3002 RMK A01 T01620026  RH  040%=      5-min Rain = 0
KNH1 161949Z 19010KT 16/03 A3002 RMK A01 T01620027  RH  040%=      5-min Rain = 0
KNH1 161950Z 19009KT 16/03 A3002 RMK A01 T01620029  RH  041%=      5-min Rain = 0
KNH1 161951Z 19009KT 16/03 A3002 RMK A01 T01620027  RH  040%=      5-min Rain = 0
KNH1 161952Z 19010KT 16/03 A3002 RMK A01 T01610027  RH  041%=      5-min Rain = 0
KNH1 161953Z 19012KT 16/03 A3002 RMK A01 T01600025  RH  040%=      5-min Rain = 0
KNH1 161954Z 19013KT 16/03 A3002 RMK A01 T01590027  RH  041%=      5-min Rain = 0
KNH1 161955Z 19010KT 16/03 A3002 RMK A01 T01580026  RH  041%=      5-min Rain = 0
KNH1 161956Z 19011KT 16/03 A3002 RMK A01 T01570027  RH  041%=      5-min Rain = 0
KNH1 161957Z 19013KT 16/03 A3002 RMK A01 T01570027  RH  041%=      5-min Rain = 0
KNH1 161958Z 19013KT 16/03 A3002 RMK A01 T01580025  RH  041%=      5-min Rain = 0
KNH1 161959Z 19012KT 16/03 A3002 RMK A01 T01570026  RH  041%=      5-min Rain = 0
KNH1 162000Z 19011KT 16/03 A3002 RMK A01 T01570026  RH  041%=      5-min Rain = 0
KNH1 162001Z 19013KT 16/03 A3002 RMK A01 T01570026  RH  041%=      5-min Rain = 0
KNH1 162002Z 19012KT 16/03 A3002 RMK A01 T01570025  RH  041%=      5-min Rain = 0
KNH1 162003Z 19011KT 16/03 A3002 RMK A01 T01570026  RH  041%=      5-min Rain = 0
KNH1 162004Z 19013KT 16/03 A3002 RMK A01 T01570025  RH  041%=      5-min Rain = 0
KNH1 162005Z 19010KT 16/02 A3002 RMK A01 T01570024  RH  041%=      5-min Rain = 0
KNH1 162006Z 19011KT 16/03 A3002 RMK A01 T01570025  RH  041%=      5-min Rain = 0
KNH1 162007Z 20011KT 16/03 A3002 RMK A01 T01580027  RH  041%=      5-min Rain = 0
KNH1 162008Z 20010KT 16/02 A3002 RMK A01 T01600023  RH  040%=      5-min Rain = 0
KNH1 162009Z 20011KT 16/02 A3002 RMK A01 T01610024  RH  040%=      5-min Rain = 0
KNH1 162010Z 20011KT 16/02 A3002 RMK A01 T01610020  RH  039%=      5-min Rain = 0
KNH1 162011Z 21012KT 16/02 A3002 RMK A01 T01610021  RH  039%=      5-min Rain = 0
KNH1 162012Z 21012KT 16/02 A3002 RMK A01 T01610020  RH  039%=      5-min Rain = 0
KNH1 162013Z 20011KT 16/02 A3002 RMK A01 T01590020  RH  039%=      5-min Rain = 0
KNH1 162014Z 20011KT 16/02 A3002 RMK A01 T01590020  RH  039%=      5-min Rain = 0
KNH1 162015Z 21011KT 16/02 A3002 RMK A01 T01580020  RH  039%=      5-min Rain = 0
KNH1 162016Z 20011KT 16/02 A3002 RMK A01 T01580021  RH  040%=      5-min Rain = 0
KNH1 162017Z 19012KT 16/02 A3002 RMK A01 T01590021  RH  040%=      5-min Rain = 0
KNH1 162018Z 20011G17KT 16/02 A3002 RMK A01 T01600022  RH  040%=      5-min Rain = 0
KNH1 162019Z 21013KT 16/02 A3002 RMK A01 T01610021  RH  039%=      5-min Rain = 0
KNH1 162020Z 21011KT 16/02 A3002 RMK A01 T01600021  RH  039%=      5-min Rain = 0
KNH1 162021Z 21012KT 16/02 A3002 RMK A01 T01600022  RH  040%=      5-min Rain = 0
KNH1 162022Z 21013KT 16/02 A3002 RMK A01 T01590022  RH  039%=      5-min Rain = 0
KNH1 162023Z 21013KT 16/02 A3002 RMK A01 T01590021  RH  039%=      5-min Rain = 0
KNH1 162024Z 21011KT 16/02 A3002 RMK A01 T01580020  RH  039%=      5-min Rain = 0
KNH1 162025Z 21011KT 16/02 A3001 RMK A01 T01580021  RH  040%=      5-min Rain = 0
KNH1 162026Z 21011KT 16/02 A3001 RMK A01 T01580022  RH  040%=      5-min Rain = 0
KNH1 162027Z 21012KT 16/02 A3002 RMK A01 T01580022  RH  040%=      5-min Rain = 0
KNH1 162028Z 20011KT 16/02 A3001 RMK A01 T01580021  RH  040%=      5-min Rain = 0
KNH1 162029Z 20012KT 16/02 A3001 RMK A01 T01580021  RH  040%=      5-min Rain = 0
KNH1 162030Z 20011KT 16/02 A3001 RMK A01 T01570021  RH  040%=      5-min Rain = 0
KNH1 162031Z 19011KT 16/02 A3001 RMK A01 T01570022  RH  040%=      5-min Rain = 0
KNH1 162032Z 20011KT 16/02 A3001 RMK A01 T01580023  RH  040%=      5-min Rain = 0
KNH1 162033Z 19011KT 16/02 A3001 RMK A01 T01580023  RH  040%=      5-min Rain = 0
KNH1 162034Z 20010KT 16/02 A3001 RMK A01 T01580022  RH  040%=      5-min Rain = 0
KNH1 162035Z 20011KT 16/02 A3001 RMK A01 T01570022  RH  040%=      5-min Rain = 0
KNH1 162036Z 20013KT 16/02 A3001 RMK A01 T01570022  RH  040%=      5-min Rain = 0
KNH1 162037Z 20012KT 16/02 A3001 RMK A01 T01590022  RH  040%=      5-min Rain = 0
KNH1 162038Z 21011KT 16/02 A3001 RMK A01 T01590021  RH  039%=      5-min Rain = 0
KNH1 162039Z 20010KT 16/02 A3001 RMK A01 T01600022  RH  039%=      5-min Rain = 0
KNH1 162040Z 19011KT 16/02 A3001 RMK A01 T01610022  RH  039%=      5-min Rain = 0
KNH1 162041Z 20013KT 16/02 A3001 RMK A01 T01610023  RH  039%=      5-min Rain = 0
KNH1 162042Z 21013KT 16/02 A3001 RMK A01 T01620021  RH  039%=      5-min Rain = 0
KNH1 162043Z 21013KT 16/02 A3001 RMK A01 T01630022  RH  038%=      5-min Rain = 0
KNH1 162044Z 21011KT 17/02 A3001 RMK A01 T01650023  RH  038%=      5-min Rain = 0
KNH1 162045Z 20010KT 17/02 A3001 RMK A01 T01660022  RH  038%=      5-min Rain = 0
KNH1 162046Z 20009KT 17/02 A3001 RMK A01 T01670024  RH  038%=      5-min Rain = 0
KNH1 162047Z 20011KT 17/02 A3001 RMK A01 T01690023  RH  038%=      5-min Rain = 0
KNH1 162048Z 21010KT 17/02 A30 RMK A01 T01690023  RH  037%=      5-min Rain = 0
KNH1 162049Z 19009KT 17/02 A30 RMK A01 T01680023  RH  038%=      5-min Rain = 0
KNH1 162050Z 20012KT 17/02 A30 RMK A01 T01690023  RH  038%=      5-min Rain = 0
KNH1 162051Z 20010KT 17/02 A30 RMK A01 T01680021  RH  037%=      5-min Rain = 0
KNH1 162052Z 21010KT 17/02 A30 RMK A01 T01690023  RH  037%=      5-min Rain = 0
KNH1 162053Z 21012KT 17/02 A30 RMK A01 T01700022  RH  037%=      5-min Rain = 0
KNH1 162054Z 22012KT 17/02 A30 RMK A01 T01700020  RH  037%=      5-min Rain = 0
KNH1 162055Z 21012KT 17/02 A30 RMK A01 T01690021  RH  037%=      5-min Rain = 0
KNH1 162056Z 20011KT 17/02 A30 RMK A01 T01690020  RH  037%=      5-min Rain = 0
KNH1 162057Z 20010KT 17/02 A30 RMK A01 T01690020  RH  037%=      5-min Rain = 0
KNH1 162058Z 19012KT 17/02 A30 RMK A01 T01690021  RH  037%=      5-min Rain = 0
KNH1 162059Z 21011KT 17/02 A30 RMK A01 T01690021  RH  037%=      5-min Rain = 0
KNH1 162100Z 21012KT 17/02 A30 RMK A01 T01690022  RH  037%=      5-min Rain = 0
KNH1 162101Z 21010KT 17/02 A30 RMK A01 T01690022  RH  037%=      5-min Rain = 0
KNH1 162102Z 22009KT 17/02 A30 RMK A01 T01700024  RH  037%=      5-min Rain = 0
KNH1 162103Z 23009KT 17/03 A30 RMK A01 T01720025  RH  037%=      5-min Rain = 0
KNH1 162104Z 22009KT 17/02 A30 RMK A01 T01730023  RH  037%=      5-min Rain = 0
KNH1 162105Z 21009KT 17/02 A30 RMK A01 T01720023  RH  037%=      5-min Rain = 0
KNH1 162106Z 21008KT 17/02 A30 RMK A01 T01710022  RH  037%=      5-min Rain = 0
KNH1 162107Z 21008KT 17/02 A30 RMK A01 T01720024  RH  037%=      5-min Rain = 0
KNH1 162108Z 21009KT 17/02 A30 RMK A01 T01730024  RH  037%=      5-min Rain = 0
KNH1 162109Z 22010KT 17/02 A30 RMK A01 T01740024  RH  037%=      5-min Rain = 0
KNH1 162110Z 22012KT 18/02 A30 RMK A01 T01750023  RH  036%=      5-min Rain = 0
KNH1 162111Z 21010KT 18/02 A30 RMK A01 T01750022  RH  036%=      5-min Rain = 0
KNH1 162112Z 22010KT 18/02 A30 RMK A01 T01760021  RH  036%=      5-min Rain = 0
KNH1 162113Z 21011KT 18/02 A30 RMK A01 T01760023  RH  036%=      5-min Rain = 0
KNH1 162114Z 21011KT 18/02 A30 RMK A01 T01780023  RH  036%=      5-min Rain = 0
KNH1 162115Z 20010KT 18/02 A30 RMK A01 T01780023  RH  035%=      5-min Rain = 0
KNH1 162116Z 19012KT 18/03 A30 RMK A01 T01810025  RH  035%=      5-min Rain = 0
KNH1 162117Z 21009KT 18/03 A30 RMK A01 T01820025  RH  035%=      5-min Rain = 0
KNH1 162118Z 21011KT 19/03 A30 RMK A01 T01850026  RH  035%=      5-min Rain = 0
KNH1 162119Z 20009KT 19/02 A30 RMK A01 T01850024  RH  034%=      5-min Rain = 0
KNH1 162120Z 20009KT 18/02 A30 RMK A01 T01840024  RH  034%=      5-min Rain = 0
KNH1 162121Z 20008KT 18/03 A30 RMK A01 T01840025  RH  035%=      5-min Rain = 0
KNH1 162122Z 20011KT 18/03 A30 RMK A01 T01830025  RH  035%=      5-min Rain = 0
KNH1 162123Z 21010KT 18/02 A30 RMK A01 T01820023  RH  034%=      5-min Rain = 0
KNH1 162124Z 21011KT 18/02 A30 RMK A01 T01820023  RH  035%=      5-min Rain = 0
KNH1 162125Z 20011KT 18/02 A30 RMK A01 T01830023  RH  034%=      5-min Rain = 0
KNH1 162126Z 21010KT 18/02 A30 RMK A01 T01830024  RH  034%=      5-min Rain = 0
KNH1 162127Z 21011KT 18/02 A2999 RMK A01 T01840023  RH  034%=      5-min Rain = 0
KNH1 162128Z 20014KT 18/03 A2999 RMK A01 T01840025  RH  034%=      5-min Rain = 0
KNH1 162129Z 19014KT 19/03 A2999 RMK A01 T01850025  RH  034%=      5-min Rain = 0
KNH1 162130Z 18013KT 18/03 A2999 RMK A01 T01840028  RH  035%=      5-min Rain = 0
KNH1 162131Z 18013KT 18/03 A2999 RMK A01 T01840030  RH  036%=      5-min Rain = 0
KNH1 162132Z 18011KT 18/03 A2999 RMK A01 T01830029  RH  036%=      5-min Rain = 0
KNH1 162133Z 18011KT 18/03 A2999 RMK A01 T01830030  RH  036%=      5-min Rain = 0
KNH1 162134Z 19012KT 18/03 A2999 RMK A01 T01820030  RH  036%=      5-min Rain = 0
KNH1 162135Z 18013KT 18/03 A2999 RMK A01 T01820030  RH  036%=      5-min Rain = 0
KNH1 162136Z 19012KT 18/03 A2999 RMK A01 T01800028  RH  036%=      5-min Rain = 0
KNH1 162137Z 19010KT 18/03 A2999 RMK A01 T01790029  RH  037%=      5-min Rain = 0
KNH1 162138Z 18012KT 18/03 A2999 RMK A01 T01800030  RH  037%=      5-min Rain = 0
KNH1 162139Z 18012KT 18/03 A2999 RMK A01 T01800030  RH  037%=      5-min Rain = 0
KNH1 162140Z 18013KT 18/03 A2999 RMK A01 T01800030  RH  037%=      5-min Rain = 0
KNH1 162141Z 18012KT 18/03 A2999 RMK A01 T01790030  RH  037%=      5-min Rain = 0
KNH1 162142Z 18013KT 18/03 A2999 RMK A01 T01780030  RH  037%=      5-min Rain = 0
KNH1 162143Z 18009KT 18/03 A2999 RMK A01 T01780030  RH  037%=      5-min Rain = 0
KNH1 162144Z 18011KT 18/03 A2999 RMK A01 T01780031  RH  037%=      5-min Rain = 0
KNH1 162145Z 18012KT 18/03 A2999 RMK A01 T01790030  RH  037%=      5-min Rain = 0
KNH1 162146Z 19012KT 18/03 A2999 RMK A01 T01790030  RH  037%=      5-min Rain = 0
KNH1 162147Z 19014KT 18/03 A2999 RMK A01 T01800029  RH  037%=      5-min Rain = 0
KNH1 162148Z 19011KT 18/03 A2999 RMK A01 T01790027  RH  036%=      5-min Rain = 0
KNH1 162149Z 19011KT 18/03 A2999 RMK A01 T01790028  RH  036%=      5-min Rain = 0
KNH1 162150Z 19012KT 18/03 A2999 RMK A01 T01790029  RH  037%=      5-min Rain = 0
KNH1 162151Z 18015KT 18/03 A2999 RMK A01 T01800028  RH  036%=      5-min Rain = 0
KNH1 162152Z 18015KT 18/03 A2999 RMK A01 T01800028  RH  036%=      5-min Rain = 0
KNH1 162153Z 19013KT 18/03 A2999 RMK A01 T01800027  RH  036%=      5-min Rain = 0
KNH1 162154Z 18011KT 18/03 A2999 RMK A01 T01800029  RH  036%=      5-min Rain = 0
KNH1 162155Z 19015KT 18/03 A2999 RMK A01 T01810028  RH  036%=      5-min Rain = 0
KNH1 162156Z 19013KT 18/03 A2999 RMK A01 T01810026  RH  036%=      5-min Rain = 0
KNH1 162157Z 19013KT 18/03 A2999 RMK A01 T01810027  RH  036%=      5-min Rain = 0
KNH1 162158Z 19014KT 18/03 A2999 RMK A01 T01810027  RH  036%=      5-min Rain = 0
KNH1 162159Z 19011KT 18/03 A2999 RMK A01 T01810027  RH  036%=      5-min Rain = 0
KNH1 162200Z 19013KT 18/03 A2999 RMK A01 T01820028  RH  036%=      5-min Rain = 0
KNH1 162201Z 19014KT 18/03 A2999 RMK A01 T01820027  RH  035%=      5-min Rain = 0
KNH1 162202Z 19014KT 18/03 A2999 RMK A01 T01820026  RH  035%=      5-min Rain = 0
KNH1 162203Z 19013KT 18/03 A2999 RMK A01 T01810026  RH  035%=      5-min Rain = 0
KNH1 162204Z 20012KT 18/03 A2999 RMK A01 T01800025  RH  035%=      5-min Rain = 0
KNH1 162205Z 20012KT 18/02 A2999 RMK A01 T01790024  RH  035%=      5-min Rain = 0
KNH1 162206Z 20013KT 18/02 A2999 RMK A01 T01780023  RH  035%=      5-min Rain = 0
KNH1 162207Z 20013KT 18/02 A2999 RMK A01 T01780022  RH  035%=      5-min Rain = 0
KNH1 162208Z 20013KT 18/02 A2998 RMK A01 T01770022  RH  035%=      5-min Rain = 0
KNH1 162209Z 19012KT 18/02 A2998 RMK A01 T01770022  RH  035%=      5-min Rain = 0
KNH1 162210Z 20013KT 18/02 A2998 RMK A01 T01760023  RH  036%=      5-min Rain = 0
KNH1 162211Z 19011KT 18/02 A2998 RMK A01 T01760023  RH  036%=      5-min Rain = 0
KNH1 162212Z 19011KT 18/02 A2998 RMK A01 T01760024  RH  036%=      5-min Rain = 0
KNH1 162213Z 19013KT 18/02 A2998 RMK A01 T01760024  RH  036%=      5-min Rain = 0
KNH1 162214Z 19011KT 18/02 A2998 RMK A01 T01760024  RH  036%=      5-min Rain = 0
KNH1 162215Z 19010KT 18/03 A2998 RMK A01 T01750025  RH  036%=      5-min Rain = 0
KNH1 162216Z 19011KT 18/03 A2998 RMK A01 T01760026  RH  037%=      5-min Rain = 0
KNH1 162217Z 19010KT 18/03 A2998 RMK A01 T01750026  RH  037%=      5-min Rain = 0
KNH1 162218Z 19010KT 18/03 A2998 RMK A01 T01750027  RH  037%=      5-min Rain = 0
KNH1 162219Z 19010KT 18/03 A2998 RMK A01 T01750027  RH  037%=      5-min Rain = 0
KNH1 162220Z 19011KT 18/03 A2998 RMK A01 T01750027  RH  037%=      5-min Rain = 0
KNH1 162221Z 19009KT 18/03 A2998 RMK A01 T01750026  RH  037%=      5-min Rain = 0
KNH1 162222Z 19010KT 18/03 A2998 RMK A01 T01750027  RH  037%=      5-min Rain = 0
KNH1 162223Z 18010KT 18/03 A2998 RMK A01 T01750027  RH  037%=      5-min Rain = 0
KNH1 162224Z 18012KT 18/03 A2998 RMK A01 T01750027  RH  037%=      5-min Rain = 0
KNH1 162225Z 19012KT 18/03 A2998 RMK A01 T01750026  RH  037%=      5-min Rain = 0
KNH1 162226Z 19012KT 17/03 A2998 RMK A01 T01740026  RH  037%=      5-min Rain = 0
KNH1 162227Z 19010KT 17/03 A2998 RMK A01 T01740026  RH  037%=      5-min Rain = 0
KNH1 162228Z 19011KT 17/03 A2998 RMK A01 T01740026  RH  037%=      5-min Rain = 0
KNH1 162229Z 18011KT 17/03 A2998 RMK A01 T01740025  RH  037%=      5-min Rain = 0
KNH1 162230Z 18008KT 17/03 A2998 RMK A01 T01740026  RH  037%=      5-min Rain = 0
KNH1 162231Z 19010KT 17/03 A2998 RMK A01 T01740027  RH  037%=      5-min Rain = 0
KNH1 162232Z 19011KT 17/03 A2998 RMK A01 T01740026  RH  037%=      5-min Rain = 0
KNH1 162233Z 19011KT 17/03 A2998 RMK A01 T01740025  RH  037%=      5-min Rain = 0
KNH1 162234Z 19010KT 18/02 A2998 RMK A01 T01750024  RH  036%=      5-min Rain = 0
KNH1 162235Z 19010KT 18/03 A2998 RMK A01 T01760025  RH  036%=      5-min Rain = 0
KNH1 162236Z 18010KT 18/03 A2998 RMK A01 T01770026  RH  037%=      5-min Rain = 0
KNH1 162237Z 18011KT 18/03 A2998 RMK A01 T01770027  RH  037%=      5-min Rain = 0
KNH1 162238Z 18011KT 18/03 A2998 RMK A01 T01770027  RH  037%=      5-min Rain = 0
KNH1 162239Z 18010KT 18/03 A2998 RMK A01 T01770027  RH  037%=      5-min Rain = 0
KNH1 162240Z 18009KT 18/03 A2998 RMK A01 T01770027  RH  037%=      5-min Rain = 0
KNH1 162241Z 18010KT 18/03 A2998 RMK A01 T01770029  RH  037%=      5-min Rain = 0
KNH1 162242Z 19011KT 18/03 A2998 RMK A01 T01770029  RH  037%=      5-min Rain = 0
KNH1 162243Z 18008KT 18/03 A2998 RMK A01 T01770029  RH  037%=      5-min Rain = 0
KNH1 162244Z 18008KT 18/03 A2998 RMK A01 T01760030  RH  038%=      5-min Rain = 0
KNH1 162245Z 18011KT 18/03 A2998 RMK A01 T01750030  RH  038%=      5-min Rain = 0
KNH1 162246Z 19012KT 17/03 A2998 RMK A01 T01740028  RH  038%=      5-min Rain = 0
KNH1 162247Z 19011KT 17/03 A2998 RMK A01 T01730028  RH  038%=      5-min Rain = 0
KNH1 162248Z 19010KT 17/03 A2998 RMK A01 T01720027  RH  038%=      5-min Rain = 0
KNH1 162249Z 19009KT 17/03 A2998 RMK A01 T01710027  RH  038%=      5-min Rain = 0
KNH1 162250Z 19011KT 17/03 A2998 RMK A01 T01710027  RH  038%=      5-min Rain = 0
KNH1 162251Z 19010KT 17/03 A2998 RMK A01 T01700027  RH  038%=      5-min Rain = 0
KNH1 162252Z 20008KT 17/03 A2998 RMK A01 T01700027  RH  038%=      5-min Rain = 0
KNH1 162253Z 19007KT 17/03 A2998 RMK A01 T01690027  RH  039%=      5-min Rain = 0
KNH1 162254Z 19009KT 17/03 A2998 RMK A01 T01680027  RH  039%=      5-min Rain = 0
KNH1 162255Z 19009KT 17/03 A2998 RMK A01 T01680026  RH  039%=      5-min Rain = 0
KNH1 162256Z 19008KT 17/03 A2998 RMK A01 T01670026  RH  039%=      5-min Rain = 0
KNH1 162257Z 19008KT 17/03 A2998 RMK A01 T01660026  RH  039%=      5-min Rain = 0
KNH1 162258Z 19008KT 17/03 A2998 RMK A01 T01670026  RH  039%=      5-min Rain = 0
KNH1 162259Z 19008KT 17/03 A2998 RMK A01 T01660027  RH  039%=      5-min Rain = 0
KNH1 162300Z 19008KT 17/03 A2999 RMK A01 T01650027  RH  040%=      5-min Rain = 0
KNH1 162301Z 18007KT 17/03 A2999 RMK A01 T01650028  RH  040%=      5-min Rain = 0
KNH1 162302Z 19007KT 16/03 A2999 RMK A01 T01640029  RH  040%=      5-min Rain = 0
KNH1 162303Z 19007KT 16/03 A2998 RMK A01 T01620030  RH  041%=      5-min Rain = 0
KNH1 162304Z 19006KT 16/03 A2998 RMK A01 T01620030  RH  041%=      5-min Rain = 0
KNH1 162305Z 19006KT 16/03 A2998 RMK A01 T01610031  RH  042%=      5-min Rain = 0
KNH1 162306Z 19006KT 16/03 A2998 RMK A01 T01600030  RH  042%=      5-min Rain = 0
KNH1 162307Z 19007KT 16/03 A2998 RMK A01 T01590030  RH  042%=      5-min Rain = 0
KNH1 162308Z 19007KT 16/03 A2998 RMK A01 T01590030  RH  042%=      5-min Rain = 0
KNH1 162309Z 19007KT 16/03 A2999 RMK A01 T01590030  RH  042%=      5-min Rain = 0
KNH1 162310Z 19007KT 16/03 A2999 RMK A01 T01590030  RH  042%=      5-min Rain = 0
KNH1 162311Z 19007KT 16/03 A2999 RMK A01 T01580030  RH  042%=      5-min Rain = 0
KNH1 162312Z 19007KT 16/03 A2999 RMK A01 T01580030  RH  042%=      5-min Rain = 0
KNH1 162313Z 19007KT 16/03 A2999 RMK A01 T01580030  RH  042%=      5-min Rain = 0
KNH1 162314Z 19007KT 16/03 A2999 RMK A01 T01580030  RH  042%=      5-min Rain = 0
KNH1 162315Z 19007KT 16/03 A2999 RMK A01 T01570030  RH  042%=      5-min Rain = 0
KNH1 162316Z 19007KT 16/03 A2999 RMK A01 T01570030  RH  042%=      5-min Rain = 0
KNH1 162317Z 19006KT 16/03 A2999 RMK A01 T01570030  RH  043%=      5-min Rain = 0
KNH1 162318Z 19006KT 16/03 A2999 RMK A01 T01560031  RH  043%=      5-min Rain = 0
KNH1 162319Z 18007KT 16/03 A2999 RMK A01 T01550031  RH  043%=      5-min Rain = 0
KNH1 162320Z 18007KT 16/03 A2999 RMK A01 T01550031  RH  043%=      5-min Rain = 0
KNH1 162321Z 18007KT 15/03 A2999 RMK A01 T01540031  RH  044%=      5-min Rain = 0
KNH1 162322Z 18007KT 15/03 A2999 RMK A01 T01530031  RH  044%=      5-min Rain = 0
KNH1 162323Z 18006KT 15/03 A2999 RMK A01 T01530031  RH  044%=      5-min Rain = 0
KNH1 162324Z 18006KT 15/03 A2999 RMK A01 T01520031  RH  044%=      5-min Rain = 0
KNH1 162325Z 18006KT 15/03 A2999 RMK A01 T01520031  RH  044%=      5-min Rain = 0
KNH1 162326Z 18006KT 15/03 A2999 RMK A01 T01510031  RH  045%=      5-min Rain = 0
KNH1 162327Z 18006KT 15/03 A2999 RMK A01 T01510031  RH  045%=      5-min Rain = 0
KNH1 162328Z 18006KT 15/03 A2999 RMK A01 T01500031  RH  045%=      5-min Rain = 0
KNH1 162329Z 18005KT 15/03 A2999 RMK A01 T01500032  RH  045%=      5-min Rain = 0
KNH1 162330Z 18006KT 15/03 A2999 RMK A01 T01500031  RH  045%=      5-min Rain = 0
KNH1 162331Z 18005KT 15/03 A2999 RMK A01 T01500032  RH  045%=      5-min Rain = 0
KNH1 162332Z 18006KT 15/03 A2999 RMK A01 T01500032  RH  045%=      5-min Rain = 0
KNH1 162333Z 18006KT 15/03 A2999 RMK A01 T01490033  RH  045%=      5-min Rain = 0
KNH1 162334Z 18006KT 15/03 A2999 RMK A01 T01490033  RH  046%=      5-min Rain = 0
KNH1 162335Z 18006KT 15/03 A2999 RMK A01 T01490034  RH  046%=      5-min Rain = 0
KNH1 162336Z 18006KT 15/03 A2999 RMK A01 T01490034  RH  046%=      5-min Rain = 0
KNH1 162337Z 18007KT 15/03 A2999 RMK A01 T01480034  RH  046%=      5-min Rain = 0
KNH1 162338Z 18006KT 15/03 A2999 RMK A01 T01480034  RH  046%=      5-min Rain = 0
KNH1 162339Z 18006KT 15/03 A2999 RMK A01 T01480034  RH  046%=      5-min Rain = 0
KNH1 162340Z 18006KT 15/03 A2999 RMK A01 T01480034  RH  046%=      5-min Rain = 0
KNH1 162341Z 18006KT 15/04 A2999 RMK A01 T01480035  RH  047%=      5-min Rain = 0
KNH1 162342Z 18006KT 15/04 A2999 RMK A01 T01480035  RH  046%=      5-min Rain = 0
KNH1 162343Z 18006KT 15/04 A2999 RMK A01 T01480035  RH  047%=      5-min Rain = 0
KNH1 162344Z 18006KT 15/04 A2999 RMK A01 T01480035  RH  047%=      5-min Rain = 0
KNH1 162345Z 18006KT 15/04 A2999 RMK A01 T01480035  RH  047%=      5-min Rain = 0
KNH1 162346Z 18006KT 15/04 A2999 RMK A01 T01470035  RH  047%=      5-min Rain = 0
KNH1 162347Z 17006KT 15/04 A2998 RMK A01 T01470035  RH  047%=      5-min Rain = 0
KNH1 162348Z 17006KT 15/04 A2998 RMK A01 T01460035  RH  047%=      5-min Rain = 0
KNH1 162349Z 17007KT 15/04 A2998 RMK A01 T01460036  RH  048%=      5-min Rain = 0
KNH1 162350Z 17006KT 14/04 A2998 RMK A01 T01440036  RH  048%=      5-min Rain = 0
KNH1 162351Z 17006KT 14/04 A2998 RMK A01 T01440036  RH  048%=      5-min Rain = 0
KNH1 162352Z 17006KT 14/04 A2998 RMK A01 T01430037  RH  049%=      5-min Rain = 0
KNH1 162353Z 17006KT 14/04 A2998 RMK A01 T01420036  RH  049%=      5-min Rain = 0
KNH1 162354Z 17006KT 14/04 A2998 RMK A01 T01410036  RH  049%=      5-min Rain = 0
KNH1 162355Z 18008KT 14/04 A2998 RMK A01 T01400036  RH  049%=      5-min Rain = 0
KNH1 162356Z 17007KT 14/04 A2998 RMK A01 T01400036  RH  050%=      5-min Rain = 0
KNH1 162357Z 17007KT 14/04 A2998 RMK A01 T01390036  RH  050%=      5-min Rain = 0
KNH1 162358Z 18007KT 14/04 A2998 RMK A01 T01390036  RH  050%=      5-min Rain = 0
KNH1 162359Z 17008KT 14/04 A2998 RMK A01 T01380036  RH  050%=      5-min Rain = 0
KNH1 170000Z 18008KT 14/04 A2998 RMK A01 T01380036  RH  050%=      5-min Rain = 0
KNH1 170001Z 17008KT 14/04 A2998 RMK A01 T01380036  RH  050%=      5-min Rain = 0
KNH1 170002Z 18008KT 14/04 A2998 RMK A01 T01370036  RH  050%=      5-min Rain = 0
KNH1 170003Z 17008KT 14/04 A2998 RMK A01 T01370036  RH  050%=      5-min Rain = 0
KNH1 170004Z 17009KT 14/04 A2998 RMK A01 T01370036  RH  050%=      5-min Rain = 0
KNH1 170005Z 18008KT 14/04 A2998 RMK A01 T01370036  RH  051%=      5-min Rain = 0
KNH1 170006Z 18008KT 14/04 A2998 RMK A01 T01360036  RH  051%=      5-min Rain = 0
KNH1 170007Z 17008KT 14/04 A2998 RMK A01 T01350036  RH  051%=      5-min Rain = 0
KNH1 170008Z 17008KT 14/04 A2998 RMK A01 T01350036  RH  051%=      5-min Rain = 0
KNH1 170009Z 17007KT 14/04 A2998 RMK A01 T01350036  RH  051%=      5-min Rain = 0
KNH1 170010Z 17007KT 13/04 A2998 RMK A01 T01340036  RH  051%=      5-min Rain = 0
KNH1 170011Z 17006KT 13/04 A2998 RMK A01 T01340036  RH  051%=      5-min Rain = 0
KNH1 170012Z 17008KT 13/04 A2998 RMK A01 T01330036  RH  052%=      5-min Rain = 0
KNH1 170013Z 18007KT 13/04 A2998 RMK A01 T01330035  RH  052%=      5-min Rain = 0
KNH1 170014Z 18007KT 13/04 A2998 RMK A01 T01320035  RH  052%=      5-min Rain = 0
KNH1 170015Z 17008KT 13/04 A2998 RMK A01 T01320035  RH  052%=      5-min Rain = 0
KNH1 170016Z 17008KT 13/04 A2998 RMK A01 T01310035  RH  052%=      5-min Rain = 0
KNH1 170017Z 18008KT 13/03 A2998 RMK A01 T01310034  RH  052%=      5-min Rain = 0
KNH1 170018Z 18008KT 13/03 A2998 RMK A01 T01320034  RH  052%=      5-min Rain = 0
KNH1 170019Z 18007KT 13/04 A2998 RMK A01 T01310035  RH  052%=      5-min Rain = 0
KNH1 170020Z 18007KT 13/04 A2998 RMK A01 T01310035  RH  052%=      5-min Rain = 0
KNH1 170021Z 18007KT 13/04 A2998 RMK A01 T01300035  RH  052%=      5-min Rain = 0
KNH1 170022Z 18007KT 13/04 A2999 RMK A01 T01300035  RH  052%=      5-min Rain = 0
KNH1 170023Z 18007KT 13/04 A2999 RMK A01 T01290035  RH  053%=      5-min Rain = 0
KNH1 170024Z 18007KT 13/04 A2999 RMK A01 T01290035  RH  053%=      5-min Rain = 0
KNH1 170025Z 18007KT 13/04 A2999 RMK A01 T01280035  RH  053%=      5-min Rain = 0
KNH1 170026Z 18007KT 13/04 A2999 RMK A01 T01270035  RH  054%=      5-min Rain = 0
KNH1 170027Z 19007KT 13/04 A2999 RMK A01 T01260035  RH  054%=      5-min Rain = 0
KNH1 170028Z 19007KT 13/04 A2999 RMK A01 T01250035  RH  054%=      5-min Rain = 0
KNH1 170029Z 18007KT 12/04 A2999 RMK A01 T01240035  RH  055%=      5-min Rain = 0
KNH1 170030Z 19006KT 12/04 A2999 RMK A01 T01230035  RH  055%=      5-min Rain = 0
KNH1 170031Z 18007KT 12/04 A2999 RMK A01 T01230035  RH  055%=      5-min Rain = 0
KNH1 170032Z 18007KT 12/04 A2999 RMK A01 T01220035  RH  055%=      5-min Rain = 0
KNH1 170033Z 19007KT 12/04 A2999 RMK A01 T01220035  RH  055%=      5-min Rain = 0
KNH1 170034Z 19007KT 12/04 A2999 RMK A01 T01210035  RH  055%=      5-min Rain = 0
KNH1 170035Z 19006KT 12/03 A2999 RMK A01 T01210034  RH  055%=      5-min Rain = 0
KNH1 170036Z 19006KT 12/03 A2999 RMK A01 T01210034  RH  055%=      5-min Rain = 0
KNH1 170037Z 19007KT 12/04 A2999 RMK A01 T01210035  RH  055%=      5-min Rain = 0
KNH1 170038Z 19007KT 12/04 A2999 RMK A01 T01210035  RH  055%=      5-min Rain = 0
KNH1 170039Z 18007KT 12/03 A2999 RMK A01 T01210034  RH  055%=      5-min Rain = 0
KNH1 170040Z 18006KT 12/03 A2999 RMK A01 T01210034  RH  055%=      5-min Rain = 0
KNH1 170041Z 19006KT 12/03 A2999 RMK A01 T01210034  RH  055%=      5-min Rain = 0
KNH1 170042Z 18006KT 12/03 A2999 RMK A01 T01220034  RH  055%=      5-min Rain = 0
KNH1 170043Z 18006KT 12/03 A2999 RMK A01 T01220034  RH  055%=      5-min Rain = 0
KNH1 170044Z 18005KT 12/03 A2999 RMK A01 T01230034  RH  055%=      5-min Rain = 0
KNH1 170045Z 18005KT 12/03 A2999 RMK A01 T01220033  RH  054%=      5-min Rain = 0
KNH1 170046Z 18005KT 12/03 A2999 RMK A01 T01220033  RH  054%=      5-min Rain = 0
KNH1 170047Z 18005KT 12/03 A2999 RMK A01 T01230033  RH  054%=      5-min Rain = 0
KNH1 170048Z 18005KT 12/03 A2999 RMK A01 T01220033  RH  055%=      5-min Rain = 0
KNH1 170049Z 18005KT 12/03 A2999 RMK A01 T01220033  RH  055%=      5-min Rain = 0
KNH1 170050Z 18006KT 12/03 A2999 RMK A01 T01220033  RH  055%=      5-min Rain = 0
KNH1 170051Z 18006KT 12/03 A2999 RMK A01 T01220033  RH  054%=      5-min Rain = 0
KNH1 170052Z 18006KT 12/03 A2999 RMK A01 T01220033  RH  054%=      5-min Rain = 0
KNH1 170053Z 18007KT 12/03 A2999 RMK A01 T01220033  RH  054%=      5-min Rain = 0
KNH1 170054Z 18006KT 12/03 A2999 RMK A01 T01220033  RH  054%=      5-min Rain = 0
KNH1 170055Z 18007KT 12/03 A2999 RMK A01 T01220033  RH  054%=      5-min Rain = 0
KNH1 170056Z 18007KT 12/03 A2999 RMK A01 T01220033  RH  054%=      5-min Rain = 0
KNH1 170057Z 18006KT 12/03 A2999 RMK A01 T01230033  RH  054%=      5-min Rain = 0
KNH1 170058Z 17007KT 12/03 A2999 RMK A01 T01220033  RH  054%=      5-min Rain = 0
KNH1 170059Z 17006KT 12/03 A2999 RMK A01 T01230033  RH  054%=      5-min Rain = 0
KNH1 170100Z 18006KT 12/03 A2999 RMK A01 T01220032  RH  054%=      5-min Rain = 0
KNH1 170101Z 18007KT 12/03 A2999 RMK A01 T01220033  RH  054%=      5-min Rain = 0
KNH1 170102Z 18007KT 12/03 A2999 RMK A01 T01220032  RH  054%=      5-min Rain = 0
KNH1 170103Z 18006KT 12/03 A2999 RMK A01 T01220033  RH  054%=      5-min Rain = 0
KNH1 170104Z 18007KT 12/03 A2999 RMK A01 T01210032  RH  055%=      5-min Rain = 0
KNH1 170105Z 18006KT 12/03 A2999 RMK A01 T01200032  RH  055%=      5-min Rain = 0
KNH1 170106Z 18007KT 12/03 A30 RMK A01 T01190032  RH  055%=      5-min Rain = 0
KNH1 170107Z 18007KT 12/03 A30 RMK A01 T01180032  RH  056%=      5-min Rain = 0
KNH1 170108Z 18007KT 12/03 A2999 RMK A01 T01170032  RH  056%=      5-min Rain = 0
KNH1 170109Z 18007KT 12/03 A2999 RMK A01 T01180032  RH  056%=      5-min Rain = 0
KNH1 170110Z 18008KT 12/03 A2999 RMK A01 T01180032  RH  056%=      5-min Rain = 0
KNH1 170111Z 18007KT 12/03 A2999 RMK A01 T01180032  RH  056%=      5-min Rain = 0
KNH1 170112Z 18007KT 12/03 A2999 RMK A01 T01180032  RH  056%=      5-min Rain = 0
KNH1 170113Z 18007KT 12/03 A2999 RMK A01 T01180032  RH  056%=      5-min Rain = 0
KNH1 170114Z 18006KT 12/03 A2999 RMK A01 T01180032  RH  056%=      5-min Rain = 0
KNH1 170115Z 18007KT 12/03 A2999 RMK A01 T01180032  RH  056%=      5-min Rain = 0
KNH1 170116Z 18007KT 12/03 A2999 RMK A01 T01180033  RH  056%=      5-min Rain = 0
KNH1 170117Z 18007KT 12/03 A2999 RMK A01 T01170032  RH  056%=      5-min Rain = 0
KNH1 170118Z 18008KT 12/03 A2999 RMK A01 T01170033  RH  056%=      5-min Rain = 0
KNH1 170119Z 18007KT 12/03 A2999 RMK A01 T01170032  RH  056%=      5-min Rain = 0
KNH1 170120Z 18008KT 12/03 A2999 RMK A01 T01170032  RH  056%=      5-min Rain = 0
KNH1 170121Z 18008KT 12/03 A2999 RMK A01 T01170032  RH  056%=      5-min Rain = 0
KNH1 170122Z 18008KT 12/03 A2999 RMK A01 T01170032  RH  056%=      5-min Rain = 0
KNH1 170123Z 19007KT 12/03 A2999 RMK A01 T01170032  RH  056%=      5-min Rain = 0
KNH1 170124Z 19007KT 12/03 A2999 RMK A01 T01160032  RH  057%=      5-min Rain = 0
KNH1 170125Z 19007KT 12/03 A2999 RMK A01 T01150032  RH  057%=      5-min Rain = 0
KNH1 170126Z 19007KT 11/03 A2999 RMK A01 T01140033  RH  057%=      5-min Rain = 0
KNH1 170127Z 19007KT 11/03 A2999 RMK A01 T01130032  RH  057%=      5-min Rain = 0
KNH1 170128Z 19007KT 11/03 A2999 RMK A01 T01130032  RH  058%=      5-min Rain = 0
KNH1 170129Z 19007KT 11/03 A2999 RMK A01 T01120033  RH  058%=      5-min Rain = 0
KNH1 170130Z 19007KT 11/03 A2999 RMK A01 T01110032  RH  058%=      5-min Rain = 0
KNH1 170131Z 19007KT 11/03 A2999 RMK A01 T01110032  RH  058%=      5-min Rain = 0
KNH1 170132Z 19008KT 11/03 A2999 RMK A01 T01100032  RH  059%=      5-min Rain = 0
KNH1 170133Z 19007KT 11/03 A2999 RMK A01 T01090032  RH  059%=      5-min Rain = 0
KNH1 170134Z 19008KT 11/03 A2999 RMK A01 T01080033  RH  060%=      5-min Rain = 0
KNH1 170135Z 19008KT 11/03 A2999 RMK A01 T01080033  RH  060%=      5-min Rain = 0
KNH1 170136Z 19008KT 11/03 A2999 RMK A01 T01070032  RH  060%=      5-min Rain = 0
KNH1 170137Z 19008KT 11/03 A2999 RMK A01 T01070033  RH  060%=      5-min Rain = 0
KNH1 170138Z 19007KT 11/03 A2999 RMK A01 T01070033  RH  060%=      5-min Rain = 0
KNH1 170139Z 19007KT 11/03 A2999 RMK A01 T01070032  RH  060%=      5-min Rain = 0
KNH1 170140Z 19007KT 11/03 A2999 RMK A01 T01060032  RH  060%=      5-min Rain = 0
KNH1 170141Z 19007KT 11/03 A2999 RMK A01 T01060033  RH  061%=      5-min Rain = 0
KNH1 170142Z 19007KT 11/03 A2999 RMK A01 T01050033  RH  061%=      5-min Rain = 0
KNH1 170143Z 18007KT 11/03 A2999 RMK A01 T01060033  RH  061%=      5-min Rain = 0
KNH1 170144Z 19007KT 11/03 A2999 RMK A01 T01050033  RH  061%=      5-min Rain = 0
KNH1 170145Z 18007KT 10/03 A2999 RMK A01 T01040032  RH  061%=      5-min Rain = 0
KNH1 170146Z 19007KT 10/03 A2999 RMK A01 T01030032  RH  061%=      5-min Rain = 0
KNH1 170147Z 18007KT 10/03 A2999 RMK A01 T01030032  RH  062%=      5-min Rain = 0
KNH1 170148Z 19007KT 10/03 A2999 RMK A01 T01020033  RH  062%=      5-min Rain = 0
KNH1 170149Z 19007KT 10/03 A2999 RMK A01 T01020032  RH  062%=      5-min Rain = 0
KNH1 170150Z 19008KT 10/03 A2999 RMK A01 T01020032  RH  062%=      5-min Rain = 0
KNH1 170151Z 19007KT 10/03 A2999 RMK A01 T01020032  RH  062%=      5-min Rain = 0
KNH1 170152Z 19008KT 10/03 A2999 RMK A01 T01010032  RH  062%=      5-min Rain = 0
KNH1 170153Z 19008KT 10/03 A2999 RMK A01 T01010032  RH  063%=      5-min Rain = 0
KNH1 170154Z 19008KT 10/03 A2999 RMK A01 T01000032  RH  063%=      5-min Rain = 0
KNH1 170155Z 19008KT 10/03 A2999 RMK A01 T01000033  RH  063%=      5-min Rain = 0
KNH1 170156Z 19008KT 10/03 A2999 RMK A01 T01000033  RH  063%=      5-min Rain = 0
KNH1 170157Z 19008KT 10/03 A2999 RMK A01 T00990032  RH  063%=      5-min Rain = 0
KNH1 170158Z 19008KT 10/03 A2999 RMK A01 T00990033  RH  063%=      5-min Rain = 0
KNH1 170159Z 19008KT 10/03 A2999 RMK A01 T00990033  RH  063%=      5-min Rain = 0
KNH1 170200Z 19008KT 10/03 A2999 RMK A01 T00990033  RH  063%=      5-min Rain = 0
KNH1 170201Z 19008KT 10/03 A2999 RMK A01 T00990033  RH  064%=      5-min Rain = 0
KNH1 170202Z 19008KT 10/03 A2999 RMK A01 T00990033  RH  064%=      5-min Rain = 0
KNH1 170203Z 18009KT 10/03 A2999 RMK A01 T00990034  RH  064%=      5-min Rain = 0
KNH1 170204Z 18009KT 10/03 A2999 RMK A01 T00990034  RH  064%=      5-min Rain = 0
KNH1 170205Z 18009KT 10/03 A2999 RMK A01 T01000033  RH  063%=      5-min Rain = 0
KNH1 170206Z 18010KT 10/03 A2998 RMK A01 T01010033  RH  063%=      5-min Rain = 0
KNH1 170207Z 18009KT 10/03 A2998 RMK A01 T01020033  RH  062%=      5-min Rain = 0
KNH1 170208Z 18010KT 10/03 A2998 RMK A01 T01030034  RH  062%=      5-min Rain = 0
KNH1 170209Z 18010KT 10/03 A2998 RMK A01 T01030034  RH  062%=      5-min Rain = 0
KNH1 170210Z 18009KT 10/03 A2999 RMK A01 T01040034  RH  062%=      5-min Rain = 0
KNH1 170211Z 19009KT 10/04 A2999 RMK A01 T01030035  RH  062%=      5-min Rain = 0
KNH1 170212Z 18009KT 10/04 A2999 RMK A01 T01030035  RH  063%=      5-min Rain = 0
KNH1 170213Z 18009KT 10/04 A2999 RMK A01 T01030035  RH  063%=      5-min Rain = 0
KNH1 170214Z 18008KT 10/04 A2999 RMK A01 T01030035  RH  063%=      5-min Rain = 0
KNH1 170215Z 18008KT 10/04 A2999 RMK A01 T01030035  RH  063%=      5-min Rain = 0
KNH1 170216Z 19008KT 10/04 A2999 RMK A01 T01030035  RH  063%=      5-min Rain = 0
KNH1 170217Z 18008KT 10/04 A2999 RMK A01 T01030036  RH  063%=      5-min Rain = 0
KNH1 170218Z 18008KT 10/04 A2999 RMK A01 T01030036  RH  063%=      5-min Rain = 0
KNH1 170219Z 19008KT 10/04 A2999 RMK A01 T01030036  RH  063%=      5-min Rain = 0
KNH1 170220Z 19009KT 10/04 A2999 RMK A01 T01030037  RH  063%=      5-min Rain = 0
KNH1 170221Z 19008KT 10/04 A2999 RMK A01 T01030036  RH  063%=      5-min Rain = 0
KNH1 170222Z 19008KT 10/04 A2999 RMK A01 T01040037  RH  063%=      5-min Rain = 0
KNH1 170223Z 19008KT 10/04 A2999 RMK A01 T01040037  RH  063%=      5-min Rain = 0
KNH1 170224Z 19008KT 11/04 A2999 RMK A01 T01050037  RH  063%=      5-min Rain = 0
KNH1 170225Z 19009KT 11/04 A2999 RMK A01 T01050037  RH  063%=      5-min Rain = 0
KNH1 170226Z 19009KT 11/04 A2999 RMK A01 T01060038  RH  063%=      5-min Rain = 0
KNH1 170227Z 19008KT 11/04 A2999 RMK A01 T01060038  RH  063%=      5-min Rain = 0
KNH1 170228Z 19008KT 11/04 A2999 RMK A01 T01050037  RH  063%=      5-min Rain = 0
KNH1 170229Z 20009KT 11/04 A2999 RMK A01 T01050038  RH  063%=      5-min Rain = 0
KNH1 170230Z 20008KT 11/04 A2999 RMK A01 T01050037  RH  063%=      5-min Rain = 0
KNH1 170231Z 20008KT 11/04 A2999 RMK A01 T01050038  RH  063%=      5-min Rain = 0
KNH1 170232Z 20009KT 10/04 A2999 RMK A01 T01040037  RH  063%=      5-min Rain = 0
KNH1 170233Z 20010KT 10/04 A2999 RMK A01 T01030037  RH  064%=      5-min Rain = 0
KNH1 170234Z 20009KT 10/04 A2999 RMK A01 T01040038  RH  064%=      5-min Rain = 0
KNH1 170235Z 20010KT 10/04 A2999 RMK A01 T01030038  RH  064%=      5-min Rain = 0
KNH1 170236Z 20010KT 10/04 A2999 RMK A01 T01030038  RH  064%=      5-min Rain = 0
KNH1 170237Z 20010KT 10/04 A2999 RMK A01 T01030038  RH  064%=      5-min Rain = 0
KNH1 170238Z 20010KT 10/04 A2999 RMK A01 T01030038  RH  064%=      5-min Rain = 0
KNH1 170239Z 20010KT 10/04 A2999 RMK A01 T01030038  RH  064%=      5-min Rain = 0
KNH1 170240Z 20010KT 10/04 A2999 RMK A01 T01030038  RH  064%=      5-min Rain = 0
KNH1 170241Z 20010KT 10/04 A2999 RMK A01 T01020038  RH  064%=      5-min Rain = 0
KNH1 170242Z 20009KT 10/04 A2999 RMK A01 T01020038  RH  065%=      5-min Rain = 0
KNH1 170243Z 20010KT 10/04 A2999 RMK A01 T01020038  RH  065%=      5-min Rain = 0
KNH1 170244Z 20009KT 10/04 A2999 RMK A01 T01020038  RH  065%=      5-min Rain = 0
KNH1 170245Z 20009KT 10/04 A2999 RMK A01 T01020038  RH  065%=      5-min Rain = 0
KNH1 170246Z 20009KT 10/04 A2999 RMK A01 T01020038  RH  065%=      5-min Rain = 0
KNH1 170247Z 20009KT 10/04 A2999 RMK A01 T01010037  RH  065%=      5-min Rain = 0
KNH1 170248Z 20009KT 10/04 A2999 RMK A01 T01010037  RH  065%=      5-min Rain = 0
KNH1 170249Z 20009KT 10/04 A2999 RMK A01 T01000037  RH  065%=      5-min Rain = 0
KNH1 170250Z 20009KT 10/04 A2999 RMK A01 T01000038  RH  065%=      5-min Rain = 0
KNH1 170251Z 20009KT 10/04 A2999 RMK A01 T01000038  RH  065%=      5-min Rain = 0
KNH1 170252Z 20009KT 10/04 A2999 RMK A01 T01000038  RH  065%=      5-min Rain = 0
KNH1 170253Z 20010KT 10/04 A2999 RMK A01 T01000038  RH  065%=      5-min Rain = 0
KNH1 170254Z 20009KT 10/04 A2999 RMK A01 T01000038  RH  065%=      5-min Rain = 0
KNH1 170255Z 20009KT 10/04 A2999 RMK A01 T01000038  RH  065%=      5-min Rain = 0
KNH1 170256Z 20010KT 10/04 A2999 RMK A01 T00990038  RH  066%=      5-min Rain = 0
KNH1 170257Z 20010KT 10/04 A2998 RMK A01 T00980038  RH  066%=      5-min Rain = 0
KNH1 170258Z 20009KT 10/04 A2998 RMK A01 T00980038  RH  067%=      5-min Rain = 0
KNH1 170259Z 20009KT 10/04 A2998 RMK A01 T00970039  RH  067%=      5-min Rain = 0
KNH1 170300Z 20009KT 10/04 A2998 RMK A01 T00970039  RH  067%=      5-min Rain = 0
KNH1 170301Z 20009KT 10/04 A2998 RMK A01 T00960039  RH  067%=      5-min Rain = 0
KNH1 170302Z 20008KT 10/04 A2998 RMK A01 T00970039  RH  067%=      5-min Rain = 0
KNH1 170303Z 20009KT 10/04 A2998 RMK A01 T00960039  RH  067%=      5-min Rain = 0
KNH1 170304Z 20008KT 10/04 A2998 RMK A01 T00960039  RH  067%=      5-min Rain = 0
KNH1 170305Z 20009KT 10/04 A2998 RMK A01 T00960039  RH  068%=      5-min Rain = 0
KNH1 170306Z 20008KT 10/04 A2998 RMK A01 T00960039  RH  068%=      5-min Rain = 0
KNH1 170307Z 20008KT 10/04 A2998 RMK A01 T00960039  RH  068%=      5-min Rain = 0
KNH1 170308Z 20008KT 10/04 A2999 RMK A01 T00950039  RH  068%=      5-min Rain = 0
KNH1 170309Z 20009KT 09/04 A2999 RMK A01 T00940039  RH  068%=      5-min Rain = 0
KNH1 170310Z 20008KT 09/04 A2999 RMK A01 T00940039  RH  069%=      5-min Rain = 0
KNH1 170311Z 20008KT 09/04 A2999 RMK A01 T00940040  RH  069%=      5-min Rain = 0
KNH1 170312Z 20008KT 09/04 A2999 RMK A01 T00940040  RH  069%=      5-min Rain = 0
KNH1 170313Z 20008KT 09/04 A2999 RMK A01 T00940040  RH  069%=      5-min Rain = 0
KNH1 170314Z 20008KT 09/04 A2999 RMK A01 T00930040  RH  069%=      5-min Rain = 0
KNH1 170315Z 20008KT 09/04 A2999 RMK A01 T00930040  RH  069%=      5-min Rain = 0
KNH1 170316Z 20008KT 09/04 A2999 RMK A01 T00930040  RH  069%=      5-min Rain = 0
KNH1 170317Z 20008KT 09/04 A2999 RMK A01 T00930040  RH  070%=      5-min Rain = 0
KNH1 170318Z 19008KT 09/04 A2999 RMK A01 T00930040  RH  070%=      5-min Rain = 0
KNH1 170319Z 19007KT 09/04 A2999 RMK A01 T00920040  RH  070%=      5-min Rain = 0
KNH1 170320Z 19007KT 09/04 A2999 RMK A01 T00920040  RH  069%=      5-min Rain = 0
KNH1 170321Z 19008KT 09/04 A2999 RMK A01 T00920039  RH  069%=      5-min Rain = 0
KNH1 170322Z 19007KT 09/04 A2999 RMK A01 T00920040  RH  070%=      5-min Rain = 0
KNH1 170323Z 19007KT 09/04 A2999 RMK A01 T00920040  RH  070%=      5-min Rain = 0
KNH1 170324Z 20007KT 09/04 A2999 RMK A01 T00910039  RH  070%=      5-min Rain = 0
KNH1 170325Z 20007KT 09/04 A2999 RMK A01 T00910040  RH  070%=      5-min Rain = 0
KNH1 170326Z 20007KT 09/04 A2999 RMK A01 T00910040  RH  070%=      5-min Rain = 0
KNH1 170327Z 19007KT 09/04 A2999 RMK A01 T00910040  RH  071%=      5-min Rain = 0
KNH1 170328Z 20007KT 09/04 A2999 RMK A01 T00900040  RH  071%=      5-min Rain = 0
KNH1 170329Z 20007KT 09/04 A2999 RMK A01 T00900041  RH  071%=      5-min Rain = 0
KNH1 170330Z 20007KT 09/04 A2999 RMK A01 T00890040  RH  071%=      5-min Rain = 0
KNH1 170331Z 20007KT 09/04 A2999 RMK A01 T00880040  RH  072%=      5-min Rain = 0
KNH1 170332Z 20007KT 09/04 A2999 RMK A01 T00880040  RH  072%=      5-min Rain = 0
KNH1 170333Z 20007KT 09/04 A2999 RMK A01 T00870040  RH  072%=      5-min Rain = 0
KNH1 170334Z 20008KT 09/04 A2999 RMK A01 T00870040  RH  072%=      5-min Rain = 0
KNH1 170335Z 20007KT 09/04 A2999 RMK A01 T00870039  RH  072%=      5-min Rain = 0
KNH1 170336Z 20007KT 09/04 A2999 RMK A01 T00860039  RH  072%=      5-min Rain = 0
KNH1 170337Z 20006KT 09/04 A2999 RMK A01 T00860040  RH  073%=      5-min Rain = 0
KNH1 170338Z 21006KT 09/04 A2999 RMK A01 T00850040  RH  073%=      5-min Rain = 0
KNH1 170339Z 20005KT 09/04 A2999 RMK A01 T00860040  RH  073%=      5-min Rain = 0
KNH1 170340Z 21005KT 09/04 A2999 RMK A01 T00850039  RH  073%=      5-min Rain = 0
KNH1 170341Z 21006KT 08/04 A2999 RMK A01 T00840039  RH  074%=      5-min Rain = 0
KNH1 170342Z 21006KT 08/04 A2999 RMK A01 T00830039  RH  074%=      5-min Rain = 0
KNH1 170343Z 21006KT 08/04 A2999 RMK A01 T00830039  RH  074%=      5-min Rain = 0
KNH1 170344Z 21006KT 08/04 A2999 RMK A01 T00820039  RH  074%=      5-min Rain = 0
KNH1 170345Z 21006KT 08/04 A2999 RMK A01 T00820039  RH  074%=      5-min Rain = 0
KNH1 170346Z 21006KT 08/04 A2999 RMK A01 T00810039  RH  075%=      5-min Rain = 0
KNH1 170347Z 21005KT 08/04 A2999 RMK A01 T00810039  RH  075%=      5-min Rain = 0
KNH1 170348Z 21005KT 08/04 A2999 RMK A01 T00800038  RH  075%=      5-min Rain = 0
KNH1 170349Z 21006KT 08/04 A2999 RMK A01 T00790038  RH  075%=      5-min Rain = 0
KNH1 170350Z 22005KT 08/04 A2999 RMK A01 T00780038  RH  075%=      5-min Rain = 0
KNH1 170351Z 22005KT 08/04 A2999 RMK A01 T00770037  RH  076%=      5-min Rain = 0
KNH1 170352Z 22005KT 08/04 A2999 RMK A01 T00760036  RH  076%=      5-min Rain = 0
KNH1 170353Z 22005KT 07/04 A2999 RMK A01 T00740035  RH  076%=      5-min Rain = 0
KNH1 170354Z 21005KT 07/04 A2999 RMK A01 T00720035  RH  077%=      5-min Rain = 0
KNH1 170355Z 21006KT 07/04 A2999 RMK A01 T00720035  RH  078%=      5-min Rain = 0
KNH1 170356Z 21006KT 07/04 A2999 RMK A01 T00710035  RH  078%=      5-min Rain = 0
KNH1 170357Z 21006KT 07/04 A2999 RMK A01 T00700035  RH  078%=      5-min Rain = 0
KNH1 170358Z 21006KT 07/04 A2999 RMK A01 T00700035  RH  078%=      5-min Rain = 0
KNH1 170359Z 21006KT 07/04 A2999 RMK A01 T00700036  RH  079%=      5-min Rain = 0
KNH1 170400Z 21006KT 07/04 A2999 RMK A01 T00700036  RH  079%=      5-min Rain = 0
KNH1 170401Z 20006KT 07/04 A2999 RMK A01 T00700036  RH  079%=      5-min Rain = 0
KNH1 170402Z 20006KT 07/04 A2999 RMK A01 T00710037  RH  079%=      5-min Rain = 0
KNH1 170403Z 20007KT 07/04 A2999 RMK A01 T00730038  RH  078%=      5-min Rain = 0
KNH1 170404Z 20007KT 07/04 A2999 RMK A01 T00730038  RH  078%=      5-min Rain = 0
KNH1 170405Z 20006KT 07/04 A2999 RMK A01 T00740038  RH  078%=      5-min Rain = 0
KNH1 170406Z 20006KT 07/04 A2999 RMK A01 T00740038  RH  078%=      5-min Rain = 0
KNH1 170407Z 21007KT 07/04 A2999 RMK A01 T00740038  RH  078%=      5-min Rain = 0
KNH1 170408Z 20007KT 07/04 A2999 RMK A01 T00740038  RH  078%=      5-min Rain = 0
KNH1 170409Z 20007KT 08/04 A2999 RMK A01 T00750038  RH  078%=      5-min Rain = 0
KNH1 170410Z 20007KT 07/04 A2999 RMK A01 T00740038  RH  078%=      5-min Rain = 0
KNH1 170411Z 20007KT 08/04 A2998 RMK A01 T00750038  RH  078%=      5-min Rain = 0
KNH1 170412Z 20008KT 08/04 A2998 RMK A01 T00750038  RH  077%=      5-min Rain = 0
KNH1 170413Z 20007KT 08/04 A2998 RMK A01 T00750038  RH  077%=      5-min Rain = 0
KNH1 170414Z 21007KT 08/04 A2998 RMK A01 T00750038  RH  077%=      5-min Rain = 0
KNH1 170415Z 21008KT 08/04 A2999 RMK A01 T00750038  RH  077%=      5-min Rain = 0
KNH1 170416Z 21008KT 08/04 A2999 RMK A01 T00750038  RH  077%=      5-min Rain = 0
KNH1 170417Z 21008KT 08/04 A2999 RMK A01 T00750038  RH  077%=      5-min Rain = 0
KNH1 170418Z 21008KT 08/04 A2999 RMK A01 T00750038  RH  077%=      5-min Rain = 0
KNH1 170419Z 21008KT 08/04 A2999 RMK A01 T00750038  RH  077%=      5-min Rain = 0
KNH1 170420Z 21008KT 08/04 A2999 RMK A01 T00750038  RH  077%=      5-min Rain = 0
KNH1 170421Z 21007KT 08/04 A2999 RMK A01 T00750038  RH  078%=      5-min Rain = 0
KNH1 170422Z 21007KT 08/04 A2999 RMK A01 T00750039  RH  078%=      5-min Rain = 0
KNH1 170423Z 21007KT 08/04 A2999 RMK A01 T00750039  RH  078%=      5-min Rain = 0
KNH1 170424Z 21007KT 08/04 A2999 RMK A01 T00750039  RH  078%=      5-min Rain = 0
KNH1 170425Z 21007KT 08/04 A2999 RMK A01 T00750039  RH  078%=      5-min Rain = 0
KNH1 170426Z 21008KT 08/04 A2999 RMK A01 T00750039  RH  078%=      5-min Rain = 0
KNH1 170427Z 21008KT 08/04 A2999 RMK A01 T00750038  RH  078%=      5-min Rain = 0
KNH1 170428Z 21008KT 07/04 A2999 RMK A01 T00740038  RH  078%=      5-min Rain = 0
KNH1 170429Z 21008KT 07/04 A2999 RMK A01 T00730037  RH  078%=      5-min Rain = 0
KNH1 170430Z 21008KT 07/04 A2999 RMK A01 T00730038  RH  078%=      5-min Rain = 0
KNH1 170431Z 21008KT 07/04 A2999 RMK A01 T00720037  RH  078%=      5-min Rain = 0
KNH1 170432Z 21008KT 07/04 A2999 RMK A01 T00720038  RH  079%=      5-min Rain = 0
KNH1 170433Z 21008KT 07/04 A2999 RMK A01 T00720038  RH  079%=      5-min Rain = 0
KNH1 170434Z 21008KT 07/04 A2999 RMK A01 T00710038  RH  079%=      5-min Rain = 0
KNH1 170435Z 21008KT 07/04 A2999 RMK A01 T00710038  RH  079%=      5-min Rain = 0
KNH1 170436Z 21008KT 07/04 A2999 RMK A01 T00710038  RH  079%=      5-min Rain = 0
KNH1 170437Z 21008KT 07/04 A2998 RMK A01 T00710038  RH  080%=      5-min Rain = 0
KNH1 170438Z 21008KT 07/04 A2998 RMK A01 T00710038  RH  080%=      5-min Rain = 0
KNH1 170439Z 21008KT 07/04 A2998 RMK A01 T00710038  RH  080%=      5-min Rain = 0
KNH1 170440Z 21008KT 07/04 A2998 RMK A01 T00700038  RH  080%=      5-min Rain = 0
KNH1 170441Z 21008KT 07/04 A2998 RMK A01 T00700038  RH  080%=      5-min Rain = 0
KNH1 170442Z 21008KT 07/04 A2998 RMK A01 T00700038  RH  080%=      5-min Rain = 0
KNH1 170443Z 21008KT 07/04 A2998 RMK A01 T00700038  RH  080%=      5-min Rain = 0
KNH1 170444Z 21008KT 07/04 A2998 RMK A01 T00700038  RH  080%=      5-min Rain = 0
KNH1 170445Z 22008KT 07/04 A2998 RMK A01 T00700038  RH  080%=      5-min Rain = 0
KNH1 170446Z 22007KT 07/04 A2998 RMK A01 T00700038  RH  080%=      5-min Rain = 0
KNH1 170447Z 22007KT 07/04 A2998 RMK A01 T00700038  RH  080%=      5-min Rain = 0
KNH1 170448Z 22007KT 07/04 A2998 RMK A01 T00700038  RH  080%=      5-min Rain = 0
KNH1 170449Z 22007KT 07/04 A2998 RMK A01 T00700038  RH  080%=      5-min Rain = 0
KNH1 170450Z 22007KT 07/04 A2998 RMK A01 T00700038  RH  080%=      5-min Rain = 0
KNH1 170451Z 22006KT 07/04 A2998 RMK A01 T00690038  RH  080%=      5-min Rain = 0
KNH1 170452Z 22006KT 07/04 A2998 RMK A01 T00690038  RH  081%=      5-min Rain = 0
KNH1 170453Z 22006KT 07/04 A2998 RMK A01 T00680038  RH  081%=      5-min Rain = 0
KNH1 170454Z 22006KT 07/04 A2998 RMK A01 T00680038  RH  081%=      5-min Rain = 0
KNH1 170455Z 22006KT 07/04 A2998 RMK A01 T00680038  RH  081%=      5-min Rain = 0
KNH1 170456Z 22006KT 07/04 A2998 RMK A01 T00680039  RH  081%=      5-min Rain = 0
KNH1 170457Z 22006KT 07/04 A2998 RMK A01 T00680038  RH  081%=      5-min Rain = 0
KNH1 170458Z 22006KT 07/04 A2998 RMK A01 T00680038  RH  082%=      5-min Rain = 0
KNH1 170459Z 22006KT 07/04 A2998 RMK A01 T00670038  RH  082%=      5-min Rain = 0
KNH1 170500Z 22006KT 07/04 A2998 RMK A01 T00670038  RH  082%=      5-min Rain = 0
KNH1 170501Z 22006KT 07/04 A2998 RMK A01 T00670038  RH  082%=      5-min Rain = 0
KNH1 170502Z 22006KT 07/04 A2998 RMK A01 T00670039  RH  082%=      5-min Rain = 0
KNH1 170503Z 22006KT 07/04 A2998 RMK A01 T00670039  RH  082%=      5-min Rain = 0
KNH1 170504Z 22006KT 07/04 A2998 RMK A01 T00670039  RH  082%=      5-min Rain = 0
KNH1 170505Z 21006KT 07/04 A2998 RMK A01 T00670039  RH  082%=      5-min Rain = 0
KNH1 170506Z 21006KT 07/04 A2998 RMK A01 T00670039  RH  082%=      5-min Rain = 0
KNH1 170507Z 21006KT 07/04 A2998 RMK A01 T00670039  RH  082%=      5-min Rain = 0
KNH1 170508Z 21006KT 07/04 A2998 RMK A01 T00680039  RH  082%=      5-min Rain = 0
KNH1 170509Z 21006KT 07/04 A2998 RMK A01 T00680040  RH  082%=      5-min Rain = 0
KNH1 170510Z 22006KT 07/04 A2998 RMK A01 T00690041  RH  082%=      5-min Rain = 0
KNH1 170511Z 21007KT 07/04 A2998 RMK A01 T00710042  RH  082%=      5-min Rain = 0
KNH1 170512Z 21007KT 07/04 A2998 RMK A01 T00710042  RH  081%=      5-min Rain = 0
KNH1 170513Z 21007KT 07/04 A2998 RMK A01 T00720042  RH  081%=      5-min Rain = 0
KNH1 170514Z 21007KT 07/04 A2998 RMK A01 T00720042  RH  081%=      5-min Rain = 0
KNH1 170515Z 21007KT 07/04 A2998 RMK A01 T00730042  RH  081%=      5-min Rain = 0
KNH1 170516Z 21007KT 07/04 A2998 RMK A01 T00730042  RH  081%=      5-min Rain = 0
KNH1 170517Z 21007KT 07/04 A2998 RMK A01 T00730042  RH  081%=      5-min Rain = 0
KNH1 170518Z 21007KT 07/04 A2998 RMK A01 T00730042  RH  081%=      5-min Rain = 0
KNH1 170519Z 21008KT 07/04 A2998 RMK A01 T00730042  RH  081%=      5-min Rain = 0
KNH1 170520Z 21007KT 07/04 A2998 RMK A01 T00740043  RH  081%=      5-min Rain = 0
KNH1 170521Z 21007KT 07/04 A2998 RMK A01 T00740043  RH  081%=      5-min Rain = 0
KNH1 170522Z 21007KT 07/04 A2998 RMK A01 T00740043  RH  081%=      5-min Rain = 0
KNH1 170523Z 20007KT 07/04 A2998 RMK A01 T00740043  RH  081%=      5-min Rain = 0
KNH1 170524Z 21007KT 08/04 A2998 RMK A01 T00750044  RH  081%=      5-min Rain = 0
KNH1 170525Z 21007KT 08/04 A2998 RMK A01 T00760044  RH  080%=      5-min Rain = 0
KNH1 170526Z 21008KT 08/04 A2998 RMK A01 T00770044  RH  080%=      5-min Rain = 0
KNH1 170527Z 21007KT 08/04 A2998 RMK A01 T00770044  RH  080%=      5-min Rain = 0
KNH1 170528Z 21008KT 08/04 A2998 RMK A01 T00770044  RH  080%=      5-min Rain = 0
KNH1 170529Z 21007KT 08/05 A2998 RMK A01 T00780045  RH  079%=      5-min Rain = 0
KNH1 170530Z 21007KT 08/04 A2998 RMK A01 T00780044  RH  079%=      5-min Rain = 0
KNH1 170531Z 21007KT 08/04 A2998 RMK A01 T00780044  RH  079%=      5-min Rain = 0
KNH1 170532Z 21008KT 08/04 A2998 RMK A01 T00780044  RH  079%=      5-min Rain = 0
KNH1 170533Z 21007KT 08/04 A2998 RMK A01 T00780044  RH  079%=      5-min Rain = 0
KNH1 170534Z 21007KT 08/04 A2998 RMK A01 T00770044  RH  080%=      5-min Rain = 0
KNH1 170535Z 21007KT 08/04 A2998 RMK A01 T00770044  RH  080%=      5-min Rain = 0
KNH1 170536Z 21007KT 08/04 A2998 RMK A01 T00760044  RH  080%=      5-min Rain = 0
KNH1 170537Z 21007KT 08/04 A2998 RMK A01 T00760044  RH  080%=      5-min Rain = 0
KNH1 170538Z 21007KT 08/04 A2998 RMK A01 T00760044  RH  080%=      5-min Rain = 0
KNH1 170539Z 22007KT 08/04 A2998 RMK A01 T00760044  RH  081%=      5-min Rain = 0
KNH1 170540Z 21007KT 08/04 A2998 RMK A01 T00750044  RH  081%=      5-min Rain = 0
KNH1 170541Z 22007KT 08/04 A2998 RMK A01 T00750044  RH  081%=      5-min Rain = 0
KNH1 170542Z 22007KT 08/04 A2998 RMK A01 T00750044  RH  081%=      5-min Rain = 0
KNH1 170543Z 22007KT 07/04 A2998 RMK A01 T00740044  RH  081%=      5-min Rain = 0
KNH1 170544Z 22007KT 07/04 A2998 RMK A01 T00730044  RH  082%=      5-min Rain = 0
KNH1 170545Z 22007KT 07/04 A2998 RMK A01 T00730044  RH  082%=      5-min Rain = 0
KNH1 170546Z 22007KT 07/05 A2998 RMK A01 T00730045  RH  082%=      5-min Rain = 0
KNH1 170547Z 22007KT 07/05 A2998 RMK A01 T00730045  RH  082%=      5-min Rain = 0
KNH1 170548Z 23007KT 07/05 A2998 RMK A01 T00730045  RH  082%=      5-min Rain = 0
KNH1 170549Z 22007KT 07/05 A2998 RMK A01 T00730045  RH  082%=      5-min Rain = 0
KNH1 170550Z 22007KT 07/05 A2998 RMK A01 T00730045  RH  082%=      5-min Rain = 0
KNH1 170551Z 23007KT 07/05 A2998 RMK A01 T00740045  RH  082%=      5-min Rain = 0
KNH1 170552Z 23008KT 07/05 A2998 RMK A01 T00740045  RH  082%=      5-min Rain = 0
KNH1 170553Z 22007KT 07/05 A2998 RMK A01 T00740046  RH  082%=      5-min Rain = 0
KNH1 170554Z 22007KT 08/05 A2998 RMK A01 T00750045  RH  082%=      5-min Rain = 0
KNH1 170555Z 22007KT 08/05 A2998 RMK A01 T00750046  RH  082%=      5-min Rain = 0
KNH1 170556Z 22007KT 08/05 A2998 RMK A01 T00750046  RH  082%=      5-min Rain = 0
KNH1 170557Z 22007KT 08/05 A2998 RMK A01 T00760046  RH  082%=      5-min Rain = 0
KNH1 170558Z 22007KT 08/05 A2998 RMK A01 T00750045  RH  081%=      5-min Rain = 0
KNH1 170559Z 22007KT 08/05 A2998 RMK A01 T00760045  RH  081%=      5-min Rain = 0

Page generated in 0.1269 seconds.